| time (UTC) | temp C | wind direction | speed KPH | gust KPH | rain 1hr cm | rain 24hr cm | rain mn cm | humidity % | barometer mb |
| 20260507052816 | 11 | 0 | 82.1 | 0.0 | 0.00 | 0.00 | 0.00 | 75 | 921.4 |
| 20260507052707 | 11 | 45 | 78.9 | 0.0 | 0.00 | 0.00 | 0.00 | 75 | 921.4 |
| 20260507052559 | 10 | 45 | 32.2 | 0.0 | 0.00 | 0.00 | 0.00 | 75 | 921.4 |
| 20260507052451 | 10 | 45 | 66.0 | 0.0 | 0.00 | 0.00 | 0.00 | 75 | 921.4 |
| 20260507052342 | 10 | 45 | 120.7 | 0.0 | 0.00 | 0.00 | 0.00 | 75 | 921.4 |
| 20260507052234 | 10 | 45 | 91.7 | 0.0 | 0.00 | 0.00 | 0.00 | 75 | 921.2 |
| 20260507052125 | 10 | 0 | 143.2 | 0.0 | 0.00 | 0.00 | 0.00 | 75 | 921.3 |
| 20260507052017 | 10 | 315 | 49.9 | 0.0 | 0.00 | 0.00 | 0.00 | 75 | 921.3 |
| 20260507051908 | 10 | 225 | 72.4 | 0.0 | 0.00 | 0.00 | 0.00 | 75 | 921.3 |
| 20260507051800 | 10 | 0 | 72.4 | 0.0 | 0.00 | 0.00 | 0.00 | 75 | 921.2 |
| 20260507051652 | 10 | 45 | 90.1 | 0.0 | 0.00 | 0.00 | 0.00 | 75 | 921.4 |
| 20260507051543 | 10 | 45 | 11.3 | 0.0 | 0.00 | 0.00 | 0.00 | 75 | 921.3 |
| 20260507051435 | 10 | 315 | 85.3 | 0.0 | 0.00 | 0.00 | 0.00 | 75 | 921.3 |
| 20260507051326 | 10 | 270 | 78.9 | 0.0 | 0.00 | 0.00 | 0.00 | 75 | 921.2 |
| 20260507051218 | 10 | 0 | 41.8 | 0.0 | 0.00 | 0.00 | 0.00 | 75 | 921.3 |
| 20260507051109 | 10 | 0 | 125.5 | 0.0 | 0.00 | 0.00 | 0.00 | 75 | 921.3 |
| 20260507051001 | 10 | 45 | 64.4 | 0.0 | 0.00 | 0.00 | 0.00 | 76 | 921.3 |
| 20260507050852 | 10 | 0 | 112.7 | 0.0 | 0.00 | 0.00 | 0.00 | 76 | 921.3 |
| 20260507050744 | 10 | 45 | 74.0 | 0.0 | 0.00 | 0.00 | 0.00 | 76 | 921.2 |
| 20260507050636 | 10 | 0 | 62.8 | 0.0 | 0.00 | 0.00 | 0.00 | 76 | 921.2 |
| 20260507050527 | 10 | 0 | 136.8 | 0.0 | 0.00 | 0.00 | 0.00 | 76 | 921.2 |
| 20260507050419 | 10 | 0 | 51.5 | 0.0 | 0.00 | 0.00 | 0.00 | 76 | 921.2 |
| 20260507050310 | 10 | 315 | 91.7 | 0.0 | 0.00 | 0.00 | 0.00 | 76 | 921.3 |
| 20260507050202 | 10 | 0 | 119.1 | 0.0 | 0.00 | 0.00 | 0.00 | 76 | 921.3 |
| 20260507050053 | 10 | 315 | 149.7 | 0.0 | 0.00 | 0.00 | 0.00 | 75 | 921.1 |
| 20260507045945 | 9 | 135 | 48.3 | 0.0 | 0.00 | 0.00 | 0.00 | 75 | 921.2 |
| 20260507045836 | 9 | 315 | 49.9 | 0.0 | 0.00 | 0.00 | 0.00 | 75 | 921.2 |
| 20260507045728 | 9 | 0 | 59.5 | 0.0 | 0.00 | 0.00 | 0.00 | 75 | 921.2 |
| 20260507045620 | 9 | 0 | 70.8 | 0.0 | 0.00 | 0.00 | 0.00 | 75 | 921.2 |
| 20260507045511 | 9 | 0 | 22.5 | 0.0 | 0.00 | 0.00 | 0.00 | 76 | 921.2 |
| 20260507045254 | 9 | 315 | 64.4 | 0.0 | 0.00 | 0.00 | 0.00 | 76 | 921.0 |
| 20260507045146 | 9 | 45 | 43.5 | 0.0 | 0.00 | 0.00 | 0.00 | 76 | 921.1 |
| 20260507045037 | 9 | 315 | 88.5 | 0.0 | 0.00 | 0.00 | 0.00 | 76 | 921.1 |
| 20260507044929 | 9 | 135 | 38.6 | 0.0 | 0.00 | 0.00 | 0.00 | 76 | 921.1 |
| 20260507044820 | 9 | 0 | 66.0 | 0.0 | 0.00 | 0.00 | 0.00 | 76 | 921.1 |
| 20260507044712 | 9 | 0 | 70.8 | 0.0 | 0.00 | 0.00 | 0.00 | 76 | 921.1 |
| 20260507044604 | 9 | 0 | 80.5 | 0.0 | 0.00 | 0.00 | 0.00 | 76 | 921.1 |
| 20260507044455 | 9 | 45 | 67.6 | 0.0 | 0.00 | 0.00 | 0.00 | 76 | 921.1 |
| 20260507044347 | 9 | 0 | 128.7 | 0.0 | 0.00 | 0.00 | 0.00 | 76 | 921.1 |
| 20260507044238 | 9 | 0 | 83.7 | 0.0 | 0.00 | 0.00 | 0.00 | 76 | 921.0 |
| 20260507044130 | 9 | 45 | 49.9 | 0.0 | 0.00 | 0.00 | 0.00 | 76 | 921.1 |
| 20260507044021 | 9 | 45 | 56.3 | 0.0 | 0.00 | 0.00 | 0.00 | 76 | 921.1 |
| 20260507043913 | 9 | 0 | 64.4 | 0.0 | 0.00 | 0.00 | 0.00 | 76 | 921.1 |
| 20260507043805 | 9 | 0 | 69.2 | 0.0 | 0.00 | 0.00 | 0.00 | 76 | 921.1 |
| 20260507043656 | 9 | 0 | 38.6 | 0.0 | 0.00 | 0.00 | 0.00 | 76 | 921.1 |
| 20260507043548 | 9 | 45 | 20.9 | 0.0 | 0.00 | 0.00 | 0.00 | 76 | 921.1 |
| 20260507043439 | 9 | 0 | 1.6 | 0.0 | 0.00 | 0.00 | 0.00 | 76 | 921.1 |
| 20260507043331 | 9 | 90 | 0.0 | 0.0 | 0.00 | 0.00 | 0.00 | 76 | 921.1 |
| 20260507043222 | 9 | 0 | 12.9 | 0.0 | 0.00 | 0.00 | 0.00 | 76 | 921.2 |
| 20260507043114 | 9 | 0 | 45.1 | 0.0 | 0.00 | 0.00 | 0.00 | 76 | 921.2 |
| 20260507043005 | 8 | 180 | 1.6 | 0.0 | 0.00 | 0.00 | 0.00 | 76 | 921.1 |
| 20260507042857 | 8 | 0 | 32.2 | 0.0 | 0.00 | 0.00 | 0.00 | 76 | 921.2 |
| 20260507042749 | 8 | 315 | 38.6 | 0.0 | 0.00 | 0.00 | 0.00 | 76 | 921.1 |
| 20260507042640 | 8 | 45 | 40.2 | 0.0 | 0.00 | 0.00 | 0.00 | 76 | 921.1 |
| 20260507042532 | 8 | 0 | 35.4 | 0.0 | 0.00 | 0.00 | 0.00 | 76 | 921.1 |
| 20260507042423 | 8 | 45 | 24.1 | 0.0 | 0.00 | 0.00 | 0.00 | 76 | 921.1 |
| 20260507042315 | 8 | 0 | 9.7 | 0.0 | 0.00 | 0.00 | 0.00 | 76 | 921.1 |
| 20260507042206 | 8 | 0 | 3.2 | 0.0 | 0.00 | 0.00 | 0.00 | 76 | 921.1 |
| 20260507042058 | 8 | 45 | 1.6 | 0.0 | 0.00 | 0.00 | 0.00 | 76 | 921.1 |
| 20260507041949 | 8 | 45 | 41.8 | 0.0 | 0.00 | 0.00 | 0.00 | 77 | 921.1 |
| 20260507041841 | 8 | 45 | 37.0 | 0.0 | 0.00 | 0.00 | 0.00 | 77 | 921.1 |
| 20260507041733 | 8 | 0 | 30.6 | 0.0 | 0.00 | 0.00 | 0.00 | 77 | 921.0 |
| 20260507041624 | 8 | 0 | 33.8 | 0.0 | 0.00 | 0.00 | 0.00 | 77 | 921.0 |
| 20260507041516 | 8 | 45 | 3.2 | 0.0 | 0.00 | 0.00 | 0.00 | 77 | 921.0 |
| 20260507041407 | 8 | 135 | 29.0 | 0.0 | 0.00 | 0.00 | 0.00 | 77 | 921.0 |
| 20260507041259 | 8 | 180 | 35.4 | 0.0 | 0.00 | 0.00 | 0.00 | 77 | 921.0 |
| 20260507041150 | 8 | 45 | 12.9 | 0.0 | 0.00 | 0.00 | 0.00 | 77 | 921.0 |
| 20260507041042 | 8 | 45 | 46.7 | 0.0 | 0.00 | 0.00 | 0.00 | 76 | 920.9 |
| 20260507040934 | 8 | 315 | 8.0 | 0.0 | 0.00 | 0.00 | 0.00 | 76 | 920.9 |
| 20260507040825 | 8 | 45 | 20.9 | 0.0 | 0.00 | 0.00 | 0.00 | 76 | 920.9 |
| 20260507040717 | 8 | 315 | 17.7 | 0.0 | 0.00 | 0.00 | 0.00 | 76 | 920.9 |
| 20260507040608 | 8 | 0 | 35.4 | 0.0 | 0.00 | 0.00 | 0.00 | 76 | 920.9 |
| 20260507040500 | 8 | 0 | 40.2 | 0.0 | 0.00 | 0.00 | 0.00 | 76 | 920.9 |
| 20260507040351 | 8 | 45 | 22.5 | 0.0 | 0.00 | 0.00 | 0.00 | 76 | 920.9 |
| 20260507040243 | 8 | 45 | 12.9 | 0.0 | 0.00 | 0.00 | 0.00 | 76 | 920.8 |
| 20260507040134 | 8 | 315 | 41.8 | 0.0 | 0.00 | 0.00 | 0.00 | 76 | 920.8 |
| 20260507040026 | 8 | 315 | 41.8 | 0.0 | 0.00 | 0.00 | 0.00 | 76 | 920.8 |
| 20260507035918 | 8 | 90 | 59.5 | 0.0 | 0.00 | 0.00 | 0.00 | 76 | 920.8 |
| 20260507035809 | 8 | 0 | 35.4 | 0.0 | 0.00 | 0.00 | 0.00 | 76 | 920.8 |
| 20260507035701 | 8 | 135 | 95.0 | 0.0 | 0.00 | 0.00 | 0.00 | 76 | 920.8 |
| 20260507035553 | 8 | 0 | 91.7 | 0.0 | 0.00 | 0.00 | 0.00 | 76 | 920.7 |
| 20260507035444 | 8 | 90 | 83.7 | 0.0 | 0.00 | 0.00 | 0.00 | 76 | 920.7 |
| 20260507035336 | 8 | 0 | 30.6 | 0.0 | 0.00 | 0.00 | 0.00 | 76 | 920.7 |
| 20260507035228 | 8 | 90 | 77.2 | 0.0 | 0.00 | 0.00 | 0.00 | 76 | 920.7 |
| 20260507035120 | 8 | 0 | 51.5 | 0.0 | 0.00 | 0.00 | 0.00 | 76 | 920.7 |
| 20260507035011 | 8 | 0 | 101.4 | 0.0 | 0.00 | 0.00 | 0.00 | 76 | 920.7 |
| 20260507034903 | 8 | 0 | 111.0 | 0.0 | 0.00 | 0.00 | 0.00 | 76 | 920.7 |
| 20260507034755 | 8 | 315 | 45.1 | 0.0 | 0.00 | 0.00 | 0.00 | 76 | 920.7 |
| 20260507034647 | 8 | 0 | 85.3 | 0.0 | 0.00 | 0.00 | 0.00 | 76 | 920.7 |
| 20260507034538 | 8 | 45 | 112.7 | 0.0 | 0.00 | 0.00 | 0.00 | 76 | 920.7 |
| 20260507034430 | 8 | 67.6 | 0.0 | 0.00 | 0.00 | 0.00 | 76 | 920.7 | |
| 20260507034322 | 8 | 0 | 107.8 | 0.0 | 0.00 | 0.00 | 0.00 | 76 | 920.6 |
| 20260507034213 | 8 | 0 | 104.6 | 0.0 | 0.00 | 0.00 | 0.00 | 76 | 920.5 |
| 20260507034105 | 8 | 0 | 62.8 | 0.0 | 0.00 | 0.00 | 0.00 | 76 | 920.4 |
| 20260507033957 | 8 | 0 | 70.8 | 0.0 | 0.00 | 0.00 | 0.00 | 76 | 920.5 |
| 20260507033849 | 8 | 0 | 67.6 | 0.0 | 0.00 | 0.00 | 0.00 | 76 | 920.5 |
| 20260507033740 | 8 | 315 | 41.8 | 0.0 | 0.00 | 0.00 | 0.00 | 76 | 920.5 |
| 20260507033632 | 8 | 45 | 54.7 | 0.0 | 0.00 | 0.00 | 0.00 | 76 | 920.5 |
| 20260507033524 | 8 | 0 | 74.0 | 0.0 | 0.00 | 0.00 | 0.00 | 76 | 920.4 |
| 20260507033415 | 8 | 0 | 66.0 | 0.0 | 0.00 | 0.00 | 0.00 | 76 | 920.4 |
| 20260507033307 | 8 | 0 | 64.4 | 0.0 | 0.00 | 0.00 | 0.00 | 76 | 920.5 |
| 20260507033159 | 8 | 315 | 48.3 | 0.0 | 0.00 | 0.00 | 0.00 | 76 | 920.5 |
| 20260507033051 | 8 | 0 | 82.1 | 0.0 | 0.00 | 0.00 | 0.00 | 76 | 920.5 |
| 20260507032942 | 8 | 45 | 91.7 | 0.0 | 0.00 | 0.00 | 0.00 | 76 | 920.4 |
| 20260507032834 | 8 | 45 | 62.8 | 0.0 | 0.00 | 0.00 | 0.00 | 76 | 920.4 |
| 20260507032726 | 8 | 315 | 14.5 | 0.0 | 0.00 | 0.00 | 0.00 | 76 | 920.5 |
| 20260507032617 | 8 | 90 | 70.8 | 0.0 | 0.00 | 0.00 | 0.00 | 76 | 920.4 |
| 20260507032509 | 8 | 45 | 109.4 | 0.0 | 0.00 | 0.00 | 0.00 | 76 | 920.4 |
| 20260507032401 | 8 | 45 | 141.6 | 0.0 | 0.00 | 0.00 | 0.00 | 76 | 920.4 |
| 20260507032253 | 8 | 0 | 62.8 | 0.0 | 0.00 | 0.00 | 0.00 | 76 | 920.4 |
| 20260507032144 | 8 | 0 | 66.0 | 0.0 | 0.00 | 0.00 | 0.00 | 76 | 920.4 |
| 20260507032036 | 8 | 315 | 78.9 | 0.0 | 0.00 | 0.00 | 0.00 | 76 | 920.4 |
| 20260507031928 | 8 | 45 | 57.9 | 0.0 | 0.00 | 0.00 | 0.00 | 76 | 920.4 |
| 20260507031820 | 8 | 315 | 77.2 | 0.0 | 0.00 | 0.00 | 0.00 | 76 | 920.5 |
| 20260507031711 | 8 | 0 | 101.4 | 0.0 | 0.00 | 0.00 | 0.00 | 76 | 920.5 |
| 20260507031603 | 8 | 0 | 64.4 | 0.0 | 0.00 | 0.00 | 0.00 | 76 | 920.4 |
| 20260507031455 | 8 | 45 | 69.2 | 0.0 | 0.00 | 0.00 | 0.00 | 76 | 920.5 |
| 20260507031347 | 8 | 0 | 32.2 | 0.0 | 0.00 | 0.00 | 0.00 | 76 | 920.5 |
| 20260507031238 | 8 | 270 | 53.1 | 0.0 | 0.00 | 0.00 | 0.00 | 76 | 920.5 |
| 20260507031130 | 8 | 0 | 43.5 | 0.0 | 0.00 | 0.00 | 0.00 | 76 | 920.5 |
| 20260507031022 | 8 | 0 | 32.2 | 0.0 | 0.00 | 0.00 | 0.00 | 76 | 920.5 |
| 20260507030913 | 8 | 0 | 29.0 | 0.0 | 0.00 | 0.00 | 0.00 | 76 | 920.5 |
| 20260507030805 | 8 | 0 | 41.8 | 0.0 | 0.00 | 0.00 | 0.00 | 76 | 920.5 |
| 20260507030657 | 8 | 315 | 45.1 | 0.0 | 0.00 | 0.00 | 0.00 | 76 | 920.5 |
| 20260507030549 | 8 | 0 | 53.1 | 0.0 | 0.00 | 0.00 | 0.00 | 76 | 920.5 |
| 20260507030440 | 8 | 45 | 78.9 | 0.0 | 0.00 | 0.00 | 0.00 | 76 | 920.5 |
| 20260507030332 | 8 | 315 | 67.6 | 0.0 | 0.00 | 0.00 | 0.00 | 76 | 920.6 |
| 20260507030224 | 8 | 0 | 46.7 | 0.0 | 0.00 | 0.00 | 0.00 | 76 | 920.6 |
| 20260507030116 | 8 | 315 | 35.4 | 0.0 | 0.00 | 0.00 | 0.00 | 76 | 920.5 |
| 20260507030007 | 8 | 45 | 115.9 | 0.0 | 0.00 | 0.00 | 0.00 | 76 | 920.6 |
| 20260507025859 | 8 | 45 | 32.2 | 0.0 | 0.00 | 0.00 | 0.00 | 76 | 920.6 |
| 20260507025751 | 8 | 0 | 119.1 | 0.0 | 0.00 | 0.00 | 0.00 | 76 | 920.6 |
| 20260507025642 | 8 | 0 | 120.7 | 0.0 | 0.00 | 0.00 | 0.00 | 76 | 920.5 |
| 20260507025534 | 8 | 0 | 27.4 | 0.0 | 0.00 | 0.00 | 0.00 | 76 | 920.5 |
| 20260507025426 | 8 | 0 | 59.5 | 0.0 | 0.00 | 0.00 | 0.00 | 76 | 920.6 |
| 20260507025318 | 8 | 45 | 99.8 | 0.0 | 0.00 | 0.00 | 0.00 | 76 | 920.5 |
| 20260507025209 | 8 | 0 | 107.8 | 0.0 | 0.00 | 0.00 | 0.00 | 76 | 920.5 |
| 20260507025101 | 8 | 0 | 43.5 | 0.0 | 0.00 | 0.00 | 0.00 | 76 | 920.5 |
| 20260507024953 | 8 | 315 | 33.8 | 0.0 | 0.00 | 0.00 | 0.00 | 76 | 920.6 |
| 20260507024844 | 8 | 0 | 22.5 | 0.0 | 0.00 | 0.00 | 0.00 | 76 | 920.6 |
| 20260507024736 | 8 | 0 | 69.2 | 0.0 | 0.00 | 0.00 | 0.00 | 76 | 920.5 |
| 20260507024628 | 8 | 0 | 77.2 | 0.0 | 0.00 | 0.00 | 0.00 | 76 | 920.5 |
| 20260507024520 | 8 | 0 | 41.8 | 0.0 | 0.00 | 0.00 | 0.00 | 76 | 920.5 |
| 20260507024411 | 8 | 0 | 62.8 | 0.0 | 0.00 | 0.00 | 0.00 | 76 | 920.5 |
| 20260507024303 | 8 | 45 | 98.2 | 0.0 | 0.00 | 0.00 | 0.00 | 76 | 920.5 |
| 20260507024155 | 8 | 45 | 20.9 | 0.0 | 0.00 | 0.00 | 0.00 | 76 | 920.5 |
| 20260507024046 | 8 | 0 | 88.5 | 0.0 | 0.00 | 0.00 | 0.00 | 76 | 920.5 |
| 20260507023938 | 8 | 0 | 30.6 | 0.0 | 0.00 | 0.00 | 0.00 | 76 | 920.5 |
| 20260507023830 | 8 | 315 | 59.5 | 0.0 | 0.00 | 0.00 | 0.00 | 76 | 920.6 |
| 20260507023722 | 8 | 0 | 96.6 | 0.0 | 0.00 | 0.00 | 0.00 | 76 | 920.5 |
| 20260507023613 | 8 | 0 | 120.7 | 0.0 | 0.00 | 0.00 | 0.00 | 76 | 920.6 |
| 20260507023505 | 8 | 45 | 40.2 | 0.0 | 0.00 | 0.00 | 0.00 | 76 | 920.5 |
| 20260507023357 | 8 | 0 | 106.2 | 0.0 | 0.00 | 0.00 | 0.00 | 76 | 920.6 |
| 20260507023249 | 8 | 315 | 98.2 | 0.0 | 0.00 | 0.00 | 0.00 | 76 | 920.5 |
| 20260507023140 | 8 | 45 | 99.8 | 0.0 | 0.00 | 0.00 | 0.00 | 76 | 920.5 |
| 20260507023032 | 7 | 0 | 91.7 | 0.0 | 0.00 | 0.00 | 0.00 | 76 | 920.6 |
| 20260507022924 | 7 | 315 | 74.0 | 0.0 | 0.00 | 0.00 | 0.00 | 76 | 920.5 |
| 20260507022815 | 7 | 45 | 78.9 | 0.0 | 0.00 | 0.00 | 0.00 | 76 | 920.5 |
| 20260507022708 | 7 | 0 | 17.7 | 0.0 | 0.00 | 0.00 | 0.00 | 76 | 920.5 |
| 20260507022559 | 7 | 315 | 130.4 | 0.0 | 0.00 | 0.00 | 0.00 | 76 | 920.6 |
| 20260507022451 | 7 | 45 | 117.5 | 0.0 | 0.00 | 0.00 | 0.00 | 76 | 920.5 |
| 20260507022342 | 7 | 315 | 53.1 | 0.0 | 0.00 | 0.00 | 0.00 | 76 | 920.5 |
| 20260507022234 | 7 | 0 | 30.6 | 0.0 | 0.00 | 0.00 | 0.00 | 76 | 920.5 |
| 20260507022126 | 7 | 90 | 95.0 | 0.0 | 0.00 | 0.00 | 0.00 | 76 | 920.5 |
| 20260507022017 | 7 | 0 | 117.5 | 0.0 | 0.00 | 0.00 | 0.00 | 76 | 920.5 |
| 20260507021909 | 7 | 0 | 77.2 | 0.0 | 0.00 | 0.00 | 0.00 | 76 | 920.5 |
| 20260507021801 | 7 | 0 | 49.9 | 0.0 | 0.00 | 0.00 | 0.00 | 76 | 920.5 |
| 20260507021653 | 7 | 0 | 24.1 | 0.0 | 0.00 | 0.00 | 0.00 | 76 | 920.5 |
| 20260507021544 | 7 | 315 | 46.7 | 0.0 | 0.00 | 0.00 | 0.00 | 75 | 920.5 |
| 20260507021436 | 7 | 315 | 62.8 | 0.0 | 0.00 | 0.00 | 0.00 | 75 | 920.5 |
| 20260507021328 | 7 | 45 | 48.3 | 0.0 | 0.00 | 0.00 | 0.00 | 75 | 920.5 |
| 20260507021220 | 7 | 0 | 4.8 | 0.0 | 0.00 | 0.00 | 0.00 | 75 | 920.5 |
| 20260507021003 | 6 | 45 | 24.1 | 0.0 | 0.00 | 0.00 | 0.00 | 74 | 920.5 |
| 20260507020855 | 6 | 315 | 17.7 | 0.0 | 0.00 | 0.00 | 0.00 | 74 | 920.5 |
| 20260507020746 | 6 | 315 | 16.1 | 0.0 | 0.00 | 0.00 | 0.00 | 74 | 920.5 |
| 20260507020638 | 6 | 0 | 25.7 | 0.0 | 0.00 | 0.00 | 0.00 | 74 | 920.5 |
| 20260507020530 | 7 | 315 | 19.3 | 0.0 | 0.00 | 0.00 | 0.00 | 74 | 920.5 |
| 20260507020422 | 7 | 225 | 0.0 | 0.0 | 0.00 | 0.00 | 0.00 | 73 | 920.5 |
| 20260507020313 | 7 | 270 | 3.2 | 0.0 | 0.00 | 0.00 | 0.00 | 73 | 920.5 |
| 20260507020205 | 7 | 270 | 0.0 | 0.0 | 0.00 | 0.00 | 0.00 | 73 | 920.4 |
| 20260507015949 | 7 | 315 | 12.9 | 0.0 | 0.00 | 0.00 | 0.00 | 74 | 920.3 |
| 20260507015840 | 7 | 315 | 0.0 | 0.0 | 0.00 | 0.00 | 0.00 | 74 | 920.4 |
| 20260507015732 | 7 | 315 | 12.9 | 0.0 | 0.00 | 0.00 | 0.00 | 74 | 920.3 |
| 20260507015624 | 7 | 315 | 19.3 | 0.0 | 0.00 | 0.00 | 0.00 | 74 | 920.4 |
| 20260507015515 | 7 | 0 | 11.3 | 0.0 | 0.00 | 0.00 | 0.00 | 74 | 920.3 |
| 20260507015408 | 7 | 45 | 0.0 | 0.0 | 0.00 | 0.00 | 0.00 | 74 | 920.4 |
| 20260507015259 | 7 | 315 | 3.2 | 0.0 | 0.00 | 0.00 | 0.00 | 74 | 920.3 |
| 20260507015151 | 7 | 225 | 0.0 | 0.0 | 0.00 | 0.00 | 0.00 | 74 | 920.3 |
| 20260507015042 | 7 | 45 | 14.5 | 0.0 | 0.00 | 0.00 | 0.00 | 75 | 920.3 |
| 20260507014934 | 7 | 315 | 3.2 | 0.0 | 0.00 | 0.00 | 0.00 | 75 | 920.3 |
| 20260507014826 | 7 | 45 | 27.4 | 0.0 | 0.00 | 0.00 | 0.00 | 75 | 920.3 |
| 20260507014718 | 7 | 0 | 40.2 | 0.0 | 0.00 | 0.00 | 0.00 | 75 | 920.3 |
| 20260507014609 | 7 | 0 | 62.8 | 0.0 | 0.00 | 0.00 | 0.00 | 75 | 920.3 |
| 20260507014501 | 8 | 45 | 53.1 | 0.0 | 0.00 | 0.00 | 0.00 | 75 | 920.3 |
| 20260507014353 | 8 | 0 | 24.1 | 0.0 | 0.00 | 0.00 | 0.00 | 75 | 920.3 |
| 20260507014244 | 8 | 270 | 22.5 | 0.0 | 0.00 | 0.00 | 0.00 | 75 | 920.3 |
| 20260507014136 | 8 | 0 | 48.3 | 0.0 | 0.00 | 0.00 | 0.00 | 75 | 920.4 |
| 20260507014028 | 8 | 0 | 9.7 | 0.0 | 0.00 | 0.00 | 0.00 | 75 | 920.3 |
| 20260507013920 | 8 | 45 | 35.4 | 0.0 | 0.00 | 0.00 | 0.00 | 75 | 920.4 |
| 20260507013811 | 8 | 315 | 4.8 | 0.0 | 0.00 | 0.00 | 0.00 | 76 | 920.3 |
| 20260507013703 | 8 | 90 | 29.0 | 0.0 | 0.00 | 0.00 | 0.00 | 76 | 920.4 |
| 20260507013555 | 7 | 315 | 88.5 | 0.0 | 0.00 | 0.00 | 0.00 | 76 | 920.4 |
| 20260507013446 | 7 | 315 | 12.9 | 0.0 | 0.00 | 0.00 | 0.00 | 76 | 920.4 |
| 20260507013338 | 7 | 270 | 62.8 | 0.0 | 0.00 | 0.00 | 0.00 | 76 | 920.3 |
| 20260507013230 | 7 | 0 | 11.3 | 0.0 | 0.00 | 0.00 | 0.00 | 75 | 920.3 |
| 20260507013122 | 7 | 0 | 48.3 | 0.0 | 0.00 | 0.00 | 0.00 | 76 | 920.3 |
| 20260507013013 | 7 | 0 | 11.3 | 0.0 | 0.00 | 0.00 | 0.00 | 75 | 920.3 |
| 20260507012905 | 7 | 0 | 86.9 | 0.0 | 0.00 | 0.00 | 0.00 | 75 | 920.3 |
| 20260507012757 | 7 | 0 | 67.6 | 0.0 | 0.00 | 0.00 | 0.00 | 75 | 920.3 |
| 20260507012648 | 7 | 0 | 53.1 | 0.0 | 0.00 | 0.00 | 0.00 | 75 | 920.2 |
| 20260507012540 | 7 | 45 | 48.3 | 0.0 | 0.00 | 0.00 | 0.00 | 75 | 920.3 |
| 20260507012432 | 7 | 315 | 3.2 | 0.0 | 0.00 | 0.00 | 0.00 | 75 | 920.3 |
| 20260507012324 | 7 | 45 | 37.0 | 0.0 | 0.00 | 0.00 | 0.00 | 75 | 920.3 |
| 20260507012215 | 7 | 0 | 16.1 | 0.0 | 0.00 | 0.00 | 0.00 | 75 | 920.2 |
| 20260507012108 | 7 | 0 | 19.3 | 0.0 | 0.00 | 0.00 | 0.00 | 75 | 920.2 |
| 20260507011959 | 7 | 45 | 33.8 | 0.0 | 0.00 | 0.00 | 0.00 | 75 | 920.2 |
| 20260507011851 | 7 | 0 | 45.1 | 0.0 | 0.00 | 0.00 | 0.00 | 75 | 920.2 |
| 20260507011742 | 7 | 0 | 35.4 | 0.0 | 0.00 | 0.00 | 0.00 | 75 | 920.2 |
| 20260507011634 | 7 | 45 | 27.4 | 0.0 | 0.00 | 0.00 | 0.00 | 75 | 920.2 |
| 20260507011526 | 7 | 315 | 12.9 | 0.0 | 0.00 | 0.00 | 0.00 | 75 | 920.2 |
| 20260507011417 | 7 | 315 | 22.5 | 0.0 | 0.00 | 0.00 | 0.00 | 75 | 920.2 |
| 20260507011309 | 7 | 45 | 16.1 | 0.0 | 0.00 | 0.00 | 0.00 | 75 | 920.1 |
| 20260507011201 | 7 | 0 | 24.1 | 0.0 | 0.00 | 0.00 | 0.00 | 75 | 920.2 |
| 20260507011053 | 7 | 0 | 104.6 | 0.0 | 0.00 | 0.00 | 0.00 | 75 | 920.1 |
| 20260507010944 | 7 | 0 | 57.9 | 0.0 | 0.00 | 0.00 | 0.00 | 75 | 920.1 |
| 20260507010836 | 7 | 0 | 99.8 | 0.0 | 0.00 | 0.00 | 0.00 | 75 | 920.1 |
| 20260507010728 | 7 | 0 | 72.4 | 0.0 | 0.00 | 0.00 | 0.00 | 75 | 920.0 |
| 20260507010620 | 7 | 45 | 54.7 | 0.0 | 0.00 | 0.00 | 0.00 | 75 | 920.1 |
| 20260507010511 | 7 | 0 | 59.5 | 0.0 | 0.00 | 0.00 | 0.00 | 75 | 920.1 |
| 20260507010403 | 7 | 0 | 8.0 | 0.0 | 0.00 | 0.00 | 0.00 | 75 | 920.1 |
| 20260507010255 | 7 | 90 | 59.5 | 0.0 | 0.00 | 0.00 | 0.00 | 75 | 920.2 |
| 20260507010146 | 7 | 45 | 66.0 | 0.0 | 0.00 | 0.00 | 0.00 | 75 | 920.1 |
| 20260507010038 | 7 | 0 | 51.5 | 0.0 | 0.00 | 0.00 | 0.00 | 75 | 920.1 |
| 20260507005930 | 7 | 315 | 62.8 | 0.0 | 0.00 | 0.00 | 0.00 | 75 | 920.1 |
| 20260507005822 | 7 | 45 | 53.1 | 0.0 | 0.00 | 0.00 | 0.00 | 75 | 920.1 |
| 20260507005713 | 7 | 315 | 74.0 | 0.0 | 0.00 | 0.00 | 0.00 | 75 | 920.1 |
| 20260507005605 | 7 | 45 | 51.5 | 0.0 | 0.00 | 0.00 | 0.00 | 75 | 920.0 |
| 20260507005457 | 7 | 315 | 70.8 | 0.0 | 0.00 | 0.00 | 0.00 | 75 | 920.0 |
| 20260507005349 | 7 | 45 | 25.7 | 0.0 | 0.00 | 0.00 | 0.00 | 75 | 920.0 |
| 20260507005240 | 7 | 0 | 29.0 | 0.0 | 0.00 | 0.00 | 0.00 | 75 | 920.0 |
| 20260507005132 | 7 | 0 | 22.5 | 0.0 | 0.00 | 0.00 | 0.00 | 75 | 920.0 |
| 20260507005024 | 7 | 315 | 12.9 | 0.0 | 0.00 | 0.00 | 0.00 | 75 | 920.1 |
| 20260507004915 | 7 | 45 | 16.1 | 0.0 | 0.00 | 0.00 | 0.00 | 75 | 920.1 |
| 20260507004807 | 7 | 225 | 0.0 | 0.0 | 0.00 | 0.00 | 0.00 | 75 | 920.1 |
| 20260507004659 | 7 | 315 | 17.7 | 0.0 | 0.00 | 0.00 | 0.00 | 75 | 920.2 |
| 20260507004551 | 7 | 0 | 0.0 | 0.0 | 0.00 | 0.00 | 0.00 | 75 | 920.2 |
| 20260507004442 | 7 | 315 | 0.0 | 0.0 | 0.00 | 0.00 | 0.00 | 75 | 920.2 |
| 20260507004334 | 7 | 270 | 0.0 | 0.0 | 0.00 | 0.00 | 0.00 | 75 | 920.2 |
| 20260507004226 | 7 | 0 | 16.1 | 0.0 | 0.00 | 0.00 | 0.00 | 75 | 920.2 |
| 20260507004117 | 7 | 0 | 24.1 | 0.0 | 0.00 | 0.00 | 0.00 | 75 | 920.2 |
| 20260507004009 | 7 | 0 | 4.8 | 0.0 | 0.00 | 0.00 | 0.00 | 75 | 920.2 |
| 20260507003901 | 7 | 0 | 1.6 | 0.0 | 0.00 | 0.00 | 0.00 | 76 | 920.3 |
| 20260507003644 | 7 | 315 | 1.6 | 0.0 | 0.00 | 0.00 | 0.00 | 76 | 920.2 |
| 20260507003536 | 7 | 0 | 1.6 | 0.0 | 0.00 | 0.00 | 0.00 | 76 | 920.3 |
| 20260507003428 | 7 | 315 | 3.2 | 0.0 | 0.00 | 0.00 | 0.00 | 76 | 920.3 |
| 20260507003320 | 7 | 0 | 14.5 | 0.0 | 0.00 | 0.00 | 0.00 | 76 | 920.3 |
| 20260507003211 | 7 | 45 | 0.0 | 0.0 | 0.00 | 0.00 | 0.00 | 76 | 920.2 |
| 20260507003103 | 7 | 315 | 0.0 | 0.0 | 0.00 | 0.00 | 0.00 | 76 | 920.3 |
| 20260507002955 | 7 | 0 | 24.1 | 0.0 | 0.00 | 0.00 | 0.00 | 76 | 920.2 |
| 20260507002846 | 7 | 0 | 0.0 | 0.0 | 0.00 | 0.00 | 0.00 | 76 | 920.2 |
| 20260507002738 | 7 | 315 | 0.0 | 0.0 | 0.00 | 0.00 | 0.00 | 76 | 920.3 |
| 20260507002630 | 7 | 315 | 0.0 | 0.0 | 0.00 | 0.00 | 0.00 | 76 | 920.2 |
| 20260507002522 | 7 | 315 | 11.3 | 0.0 | 0.00 | 0.00 | 0.00 | 75 | 920.2 |
| 20260507002414 | 7 | 315 | 4.8 | 0.0 | 0.00 | 0.00 | 0.00 | 75 | 920.2 |
| 20260507002306 | 7 | 315 | 0.0 | 0.0 | 0.00 | 0.00 | 0.00 | 75 | 920.2 |
| 20260507002157 | 7 | 0 | 0.0 | 0.0 | 0.00 | 0.00 | 0.00 | 75 | 920.2 |
| 20260507002048 | 7 | 315 | 0.0 | 0.0 | 0.00 | 0.00 | 0.00 | 75 | 920.2 |
| 20260507001940 | 7 | 315 | 0.0 | 0.0 | 0.00 | 0.00 | 0.00 | 75 | 920.2 |
| 20260507001832 | 7 | 315 | 0.0 | 0.0 | 0.00 | 0.00 | 0.00 | 75 | 920.2 |
| 20260507001724 | 7 | 315 | 0.0 | 0.0 | 0.00 | 0.00 | 0.00 | 75 | 920.2 |
| 20260507001615 | 7 | 315 | 1.6 | 0.0 | 0.00 | 0.00 | 0.00 | 75 | 920.2 |
| 20260507001507 | 7 | 0 | 0.0 | 0.0 | 0.00 | 0.00 | 0.00 | 75 | 920.3 |
| 20260507001359 | 7 | 315 | 0.0 | 0.0 | 0.00 | 0.00 | 0.00 | 75 | 920.2 |
| 20260507001251 | 7 | 315 | 0.0 | 0.0 | 0.00 | 0.00 | 0.00 | 75 | 920.2 |
| 20260507001142 | 7 | 315 | 0.0 | 0.0 | 0.00 | 0.00 | 0.00 | 75 | 920.2 |
| 20260507001034 | 7 | 315 | 0.0 | 0.0 | 0.00 | 0.00 | 0.00 | 75 | 920.2 |
| 20260507000926 | 7 | 315 | 0.0 | 0.0 | 0.00 | 0.00 | 0.00 | 75 | 920.2 |
| 20260507000817 | 6 | 315 | 0.0 | 0.0 | 0.00 | 0.00 | 0.00 | 75 | 920.2 |
| 20260507000709 | 6 | 315 | 0.0 | 0.0 | 0.00 | 0.00 | 0.00 | 75 | 920.2 |
| 20260507000601 | 6 | 315 | 0.0 | 0.0 | 0.00 | 0.00 | 0.00 | 75 | 920.2 |
| 20260507000453 | 6 | 315 | 0.0 | 0.0 | 0.00 | 0.00 | 0.00 | 75 | 920.2 |
| 20260507000344 | 6 | 0 | 0.0 | 0.0 | 0.00 | 0.00 | 0.00 | 75 | 920.2 |
| 20260507000236 | 6 | 0 | 6.4 | 0.0 | 0.00 | 0.00 | 0.00 | 75 | 920.2 |
| 20260507000128 | 6 | 0 | 14.5 | 0.0 | 0.00 | 0.00 | 0.00 | 75 | 920.2 |
| 20260507000019 | 6 | 0 | 40.2 | 0.0 | 0.00 | 0.00 | 0.00 | 75 | 920.1 |
| 20260506235911 | 6 | 0 | 22.5 | 0.0 | 0.00 | 0.00 | 0.00 | 75 | 920.1 |
| 20260506235803 | 6 | 0 | 20.9 | 0.0 | 0.00 | 0.00 | 0.00 | 75 | 920.1 |
| 20260506235655 | 6 | 0 | 33.8 | 0.0 | 0.00 | 0.00 | 0.00 | 75 | 920.1 |
| 20260506235546 | 6 | 0 | 0.0 | 0.0 | 0.00 | 0.00 | 0.00 | 75 | 920.2 |
| 20260506235438 | 6 | 315 | 0.0 | 0.0 | 0.00 | 0.00 | 0.00 | 75 | 920.2 |
| 20260506235330 | 6 | 90 | 0.0 | 0.0 | 0.00 | 0.00 | 0.00 | 74 | 920.2 |
| 20260506235222 | 6 | 90 | 9.7 | 0.0 | 0.00 | 0.00 | 0.00 | 74 | 920.2 |
| 20260506235113 | 6 | 0 | 0.0 | 0.0 | 0.00 | 0.00 | 0.00 | 74 | 920.2 |
| 20260506235006 | 6 | 45 | 0.0 | 0.0 | 0.00 | 0.00 | 0.00 | 74 | 920.2 |
| 20260506234857 | 6 | 315 | 0.0 | 0.0 | 0.00 | 0.00 | 0.00 | 74 | 920.2 |
| 20260506234640 | 6 | 270 | 9.7 | 0.0 | 0.00 | 0.00 | 0.00 | 73 | 920.2 |
| 20260506234532 | 6 | 270 | 0.0 | 0.0 | 0.00 | 0.00 | 0.00 | 73 | 920.1 |
| 20260506234424 | 6 | 270 | 4.8 | 0.0 | 0.00 | 0.00 | 0.00 | 73 | 920.2 |
| 20260506234315 | 6 | 270 | 9.7 | 0.0 | 0.00 | 0.00 | 0.00 | 73 | 920.2 |
| 20260506234207 | 6 | 270 | 0.0 | 0.0 | 0.00 | 0.00 | 0.00 | 73 | 920.1 |
| 20260506234059 | 6 | 315 | 1.6 | 0.0 | 0.00 | 0.00 | 0.00 | 73 | 920.1 |
| 20260506233950 | 6 | 315 | 1.6 | 0.0 | 0.00 | 0.00 | 0.00 | 73 | 920.1 |
| 20260506233842 | 6 | 315 | 1.6 | 0.0 | 0.00 | 0.00 | 0.00 | 73 | 920.0 |
| 20260506233734 | 6 | 270 | 0.0 | 0.0 | 0.00 | 0.00 | 0.00 | 73 | 920.0 |
| 20260506233626 | 6 | 90 | 3.2 | 0.0 | 0.00 | 0.00 | 0.00 | 73 | 920.0 |
| 20260506233517 | 6 | 315 | 0.0 | 0.0 | 0.00 | 0.00 | 0.00 | 73 | 920.0 |
| 20260506233409 | 6 | 270 | 3.2 | 0.0 | 0.00 | 0.00 | 0.00 | 73 | 920.0 |
| 20260506233301 | 6 | 270 | 6.4 | 0.0 | 0.00 | 0.00 | 0.00 | 73 | 920.0 |
| 20260506233153 | 6 | 270 | 0.0 | 0.0 | 0.00 | 0.00 | 0.00 | 73 | 919.9 |
| 20260506233045 | 6 | 135 | 0.0 | 0.0 | 0.00 | 0.00 | 0.00 | 73 | 920.0 |
| 20260506232936 | 6 | 315 | 1.6 | 0.0 | 0.00 | 0.00 | 0.00 | 73 | 920.0 |
| 20260506232828 | 6 | 0 | 20.9 | 0.0 | 0.00 | 0.00 | 0.00 | 72 | 920.0 |
| 20260506232719 | 6 | 315 | 37.0 | 0.0 | 0.00 | 0.00 | 0.00 | 72 | 920.0 |
| 20260506232611 | 6 | 0 | 32.2 | 0.0 | 0.00 | 0.00 | 0.00 | 72 | 920.0 |
| 20260506232503 | 6 | 0 | 16.1 | 0.0 | 0.00 | 0.00 | 0.00 | 72 | 920.0 |
| 20260506232355 | 6 | 45 | 16.1 | 0.0 | 0.00 | 0.00 | 0.00 | 72 | 920.0 |
| 20260506232246 | 6 | 315 | 0.0 | 0.0 | 0.00 | 0.00 | 0.00 | 72 | 920.0 |
| 20260506232138 | 6 | 315 | 0.0 | 0.0 | 0.00 | 0.00 | 0.00 | 72 | 920.1 |
| 20260506232030 | 6 | 315 | 0.0 | 0.0 | 0.00 | 0.00 | 0.00 | 72 | 920.1 |
| 20260506231922 | 6 | 315 | 0.0 | 0.0 | 0.00 | 0.00 | 0.00 | 72 | 920.1 |
| 20260506231813 | 6 | 270 | 0.0 | 0.0 | 0.00 | 0.00 | 0.00 | 72 | 920.1 |
| 20260506231705 | 6 | 0 | 0.0 | 0.0 | 0.00 | 0.00 | 0.00 | 72 | 920.1 |
| 20260506231557 | 6 | 45 | 6.4 | 0.0 | 0.00 | 0.00 | 0.00 | 72 | 920.1 |
| 20260506231448 | 7 | 315 | 16.1 | 0.0 | 0.00 | 0.00 | 0.00 | 72 | 920.1 |
| 20260506231340 | 7 | 315 | 0.0 | 0.0 | 0.00 | 0.00 | 0.00 | 72 | 920.2 |
| 20260506231232 | 7 | 315 | 0.0 | 0.0 | 0.00 | 0.00 | 0.00 | 72 | 920.2 |
| 20260506231015 | 7 | 315 | 0.0 | 0.0 | 0.00 | 0.00 | 0.00 | 72 | 920.2 |
| 20260506230907 | 7 | 315 | 1.6 | 0.0 | 0.00 | 0.00 | 0.00 | 72 | 920.2 |
| 20260506230759 | 7 | 315 | 1.6 | 0.0 | 0.00 | 0.00 | 0.00 | 73 | 920.2 |
| 20260506230651 | 7 | 270 | 0.0 | 0.0 | 0.00 | 0.00 | 0.00 | 73 | 920.2 |
| 20260506230542 | 7 | 315 | 0.0 | 0.0 | 0.00 | 0.00 | 0.00 | 73 | 920.3 |
| 20260506230434 | 7 | 315 | 12.9 | 0.0 | 0.00 | 0.00 | 0.00 | 73 | 920.3 |
| 20260506230326 | 7 | 315 | 24.1 | 0.0 | 0.00 | 0.00 | 0.00 | 73 | 920.3 |
| 20260506230217 | 7 | 0 | 0.0 | 0.0 | 0.00 | 0.00 | 0.00 | 73 | 920.2 |
| 20260506230109 | 8 | 315 | 6.4 | 0.0 | 0.00 | 0.00 | 0.00 | 73 | 920.3 |
| 20260506230001 | 8 | 315 | 4.8 | 0.0 | 0.00 | 0.00 | 0.00 | 73 | 920.3 |
| 20260506225853 | 8 | 315 | 16.1 | 0.0 | 0.00 | 0.00 | 0.00 | 74 | 920.3 |
| 20260506225744 | 8 | 315 | 12.9 | 0.0 | 0.00 | 0.00 | 0.00 | 74 | 920.3 |
| 20260506225636 | 8 | 0 | 41.8 | 0.0 | 0.00 | 0.00 | 0.00 | 74 | 920.2 |
| 20260506225528 | 8 | 45 | 17.7 | 0.0 | 0.00 | 0.00 | 0.00 | 74 | 920.2 |
| 20260506225420 | 8 | 45 | 24.1 | 0.0 | 0.00 | 0.00 | 0.00 | 74 | 920.2 |
| 20260506225311 | 8 | 45 | 19.3 | 0.0 | 0.00 | 0.00 | 0.00 | 74 | 920.2 |
| 20260506225203 | 8 | 0 | 32.2 | 0.0 | 0.00 | 0.00 | 0.00 | 74 | 920.2 |
| 20260506225055 | 8 | 0 | 16.1 | 0.0 | 0.00 | 0.00 | 0.00 | 74 | 920.2 |
| 20260506224946 | 8 | 315 | 0.0 | 0.0 | 0.00 | 0.00 | 0.00 | 74 | 920.1 |
| 20260506224838 | 8 | 315 | 12.9 | 0.0 | 0.00 | 0.00 | 0.00 | 74 | 920.2 |
| 20260506224730 | 8 | 315 | 11.3 | 0.0 | 0.00 | 0.00 | 0.00 | 74 | 920.2 |
| 20260506224622 | 8 | 0 | 3.2 | 0.0 | 0.00 | 0.00 | 0.00 | 75 | 920.2 |
| 20260506224513 | 8 | 180 | 19.3 | 0.0 | 0.00 | 0.00 | 0.00 | 75 | 920.2 |
| 20260506224405 | 8 | 45 | 0.0 | 0.0 | 0.00 | 0.00 | 0.00 | 75 | 920.2 |
| 20260506224257 | 8 | 0 | 25.7 | 0.0 | 0.00 | 0.00 | 0.00 | 75 | 920.2 |
| 20260506224148 | 8 | 45 | 3.2 | 0.0 | 0.00 | 0.00 | 0.00 | 75 | 920.1 |
| 20260506224040 | 9 | 315 | 16.1 | 0.0 | 0.00 | 0.00 | 0.00 | 75 | 920.2 |
| 20260506223932 | 9 | 0 | 3.2 | 0.0 | 0.00 | 0.00 | 0.00 | 75 | 920.2 |
| 20260506223824 | 9 | 0 | 3.2 | 0.0 | 0.00 | 0.00 | 0.00 | 75 | 920.2 |
| 20260506223607 | 9 | 0 | 27.4 | 0.0 | 0.00 | 0.00 | 0.00 | 75 | 920.2 |
| 20260506223459 | 9 | 90 | 22.5 | 0.0 | 0.00 | 0.00 | 0.00 | 75 | 920.2 |
| 20260506223350 | 9 | 45 | 35.4 | 0.0 | 0.00 | 0.00 | 0.00 | 76 | 920.2 |
| 20260506223242 | 9 | 45 | 11.3 | 0.0 | 0.00 | 0.00 | 0.00 | 76 | 920.2 |
| 20260506223134 | 9 | 0 | 11.3 | 0.0 | 0.00 | 0.00 | 0.00 | 76 | 920.2 |
| 20260506223026 | 9 | 315 | 16.1 | 0.0 | 0.00 | 0.00 | 0.00 | 76 | 920.1 |
| 20260506222917 | 9 | 135 | 30.6 | 0.0 | 0.00 | 0.00 | 0.00 | 76 | 920.2 |
| 20260506222809 | 9 | 180 | 46.7 | 0.0 | 0.00 | 0.00 | 0.00 | 76 | 920.1 |
| 20260506222701 | 9 | 225 | 0.0 | 0.0 | 0.00 | 0.00 | 0.00 | 76 | 920.1 |
| 20260506222553 | 9 | 270 | 14.5 | 0.0 | 0.00 | 0.00 | 0.00 | 76 | 920.1 |
| 20260506222444 | 9 | 315 | 3.2 | 0.0 | 0.00 | 0.00 | 0.00 | 76 | 920.1 |
| 20260506222336 | 9 | 45 | 1.6 | 0.0 | 0.00 | 0.00 | 0.00 | 76 | 920.1 |
| 20260506222228 | 9 | 90 | 9.7 | 0.0 | 0.00 | 0.00 | 0.00 | 76 | 920.1 |
| 20260506222120 | 9 | 0 | 17.7 | 0.0 | 0.00 | 0.00 | 0.00 | 76 | 920.1 |
| 20260506222011 | 9 | 180 | 14.5 | 0.0 | 0.00 | 0.00 | 0.00 | 75 | 920.1 |
| 20260506221903 | 9 | 90 | 14.5 | 0.0 | 0.00 | 0.00 | 0.00 | 75 | 920.1 |
| 20260506221755 | 9 | 135 | 27.4 | 0.0 | 0.00 | 0.00 | 0.00 | 75 | 920.0 |
| 20260506221646 | 9 | 135 | 33.8 | 0.0 | 0.00 | 0.00 | 0.00 | 75 | 920.0 |
| 20260506221538 | 9 | 315 | 41.8 | 0.0 | 0.00 | 0.00 | 0.00 | 75 | 920.0 |
| 20260506221430 | 9 | 135 | 14.5 | 0.0 | 0.00 | 0.00 | 0.00 | 75 | 920.0 |
| 20260506221322 | 9 | 45 | 61.2 | 0.0 | 0.00 | 0.00 | 0.00 | 75 | 920.0 |
| 20260506221213 | 9 | 45 | 22.5 | 0.0 | 0.00 | 0.00 | 0.00 | 75 | 919.9 |
| 20260506221105 | 10 | 45 | 66.0 | 0.0 | 0.00 | 0.00 | 0.00 | 75 | 920.0 |
| 20260506220957 | 10 | 45 | 32.2 | 0.0 | 0.00 | 0.00 | 0.00 | 75 | 920.0 |
| 20260506220848 | 10 | 0 | 90.1 | 0.0 | 0.00 | 0.00 | 0.00 | 75 | 919.9 |
| 20260506220740 | 10 | 0 | 41.8 | 0.0 | 0.00 | 0.00 | 0.00 | 76 | 919.9 |
| 20260506220632 | 10 | 45 | 40.2 | 0.0 | 0.00 | 0.00 | 0.00 | 76 | 919.9 |
| 20260506220524 | 10 | 0 | 25.7 | 0.0 | 0.00 | 0.00 | 0.00 | 76 | 919.9 |
| 20260506220415 | 10 | 0 | 17.7 | 0.0 | 0.00 | 0.00 | 0.00 | 76 | 919.9 |
| 20260506220307 | 10 | 0 | 32.2 | 0.0 | 0.00 | 0.00 | 0.00 | 76 | 919.9 |
| 20260506220200 | 10 | 0 | 64.4 | 0.0 | 0.00 | 0.00 | 0.00 | 76 | 919.8 |
| 20260506220050 | 10 | 45 | 11.3 | 0.0 | 0.00 | 0.00 | 0.00 | 76 | 919.8 |
| 20260506215942 | 10 | 0 | 90.1 | 0.0 | 0.00 | 0.00 | 0.00 | 76 | 919.9 |
| 20260506215834 | 10 | 135 | 38.6 | 0.0 | 0.00 | 0.00 | 0.00 | 76 | 919.8 |
| 20260506215726 | 10 | 315 | 20.9 | 0.0 | 0.00 | 0.00 | 0.00 | 76 | 919.8 |
| 20260506215617 | 10 | 45 | 43.5 | 0.0 | 0.00 | 0.00 | 0.00 | 76 | 919.8 |
| 20260506215509 | 10 | 45 | 83.7 | 0.0 | 0.00 | 0.00 | 0.00 | 76 | 919.8 |
| 20260506215401 | 10 | 315 | 53.1 | 0.0 | 0.00 | 0.00 | 0.00 | 76 | 919.8 |
| 20260506215253 | 10 | 315 | 25.7 | 0.0 | 0.00 | 0.00 | 0.00 | 75 | 919.8 |
| 20260506215144 | 10 | 315 | 62.8 | 0.0 | 0.00 | 0.00 | 0.00 | 75 | 919.8 |
| 20260506215036 | 10 | 0 | 20.9 | 0.0 | 0.00 | 0.00 | 0.00 | 75 | 919.7 |
| 20260506214928 | 10 | 315 | 120.7 | 0.0 | 0.00 | 0.00 | 0.00 | 75 | 919.7 |
| 20260506214819 | 10 | 0 | 90.1 | 0.0 | 0.00 | 0.00 | 0.00 | 75 | 919.7 |
| 20260506214711 | 10 | 45 | 56.3 | 0.0 | 0.00 | 0.00 | 0.00 | 75 | 919.6 |
| 20260506214603 | 10 | 45 | 77.2 | 0.0 | 0.00 | 0.00 | 0.00 | 75 | 919.7 |
| 20260506214455 | 10 | 0 | 72.4 | 0.0 | 0.00 | 0.00 | 0.00 | 76 | 919.6 |
| 20260506214346 | 10 | 0 | 45.1 | 0.0 | 0.00 | 0.00 | 0.00 | 76 | 919.7 |
| 20260506214238 | 10 | 45 | 16.1 | 0.0 | 0.00 | 0.00 | 0.00 | 75 | 919.7 |
| 20260506214130 | 10 | 45 | 66.0 | 0.0 | 0.00 | 0.00 | 0.00 | 76 | 919.7 |
| 20260506214021 | 10 | 315 | 20.9 | 0.0 | 0.00 | 0.00 | 0.00 | 76 | 919.7 |
| 20260506213913 | 10 | 315 | 32.2 | 0.0 | 0.00 | 0.00 | 0.00 | 76 | 919.7 |
| 20260506213805 | 10 | 45 | 27.4 | 0.0 | 0.00 | 0.00 | 0.00 | 76 | 919.6 |
| 20260506213657 | 10 | 90 | 43.5 | 0.0 | 0.00 | 0.00 | 0.00 | 76 | 919.6 |
| 20260506213548 | 10 | 0 | 8.0 | 0.0 | 0.00 | 0.00 | 0.00 | 76 | 919.6 |
| 20260506213440 | 10 | 45 | 22.5 | 0.0 | 0.00 | 0.00 | 0.00 | 76 | 919.7 |
| 20260506213332 | 10 | 45 | 20.9 | 0.0 | 0.00 | 0.00 | 0.00 | 76 | 919.7 |
| 20260506213224 | 10 | 45 | 16.1 | 0.0 | 0.00 | 0.00 | 0.00 | 76 | 919.6 |
| 20260506213115 | 10 | 0 | 51.5 | 0.0 | 0.00 | 0.00 | 0.00 | 76 | 919.7 |
| 20260506213007 | 10 | 0 | 29.0 | 0.0 | 0.00 | 0.00 | 0.00 | 76 | 919.7 |
| 20260506212900 | 10 | 315 | 14.5 | 0.0 | 0.00 | 0.00 | 0.00 | 76 | 919.7 |
| 20260506212750 | 10 | 45 | 14.5 | 0.0 | 0.00 | 0.00 | 0.00 | 76 | 919.7 |
| 20260506212642 | 10 | 45 | 4.8 | 0.0 | 0.00 | 0.00 | 0.00 | 76 | 919.6 |
| 20260506212534 | 10 | 0 | 45.1 | 0.0 | 0.00 | 0.00 | 0.00 | 76 | 919.7 |
| 20260506212426 | 10 | 90 | 45.1 | 0.0 | 0.00 | 0.00 | 0.00 | 76 | 919.7 |
| 20260506212317 | 10 | 315 | 33.8 | 0.0 | 0.00 | 0.00 | 0.00 | 76 | 919.6 |
| 20260506212209 | 10 | 45 | 48.3 | 0.0 | 0.00 | 0.00 | 0.00 | 76 | 919.6 |
| 20260506212101 | 10 | 45 | 51.5 | 0.0 | 0.00 | 0.00 | 0.00 | 76 | 919.6 |
| 20260506211953 | 10 | 45 | 74.0 | 0.0 | 0.00 | 0.00 | 0.00 | 76 | 919.6 |
| 20260506211844 | 10 | 0 | 69.2 | 0.0 | 0.00 | 0.00 | 0.00 | 76 | 919.6 |
| 20260506211736 | 10 | 45 | 56.3 | 0.0 | 0.00 | 0.00 | 0.00 | 76 | 919.6 |
| 20260506211628 | 10 | 0 | 12.9 | 0.0 | 0.00 | 0.00 | 0.00 | 76 | 919.6 |
| 20260506211519 | 10 | 45 | 17.7 | 0.0 | 0.00 | 0.00 | 0.00 | 76 | 919.6 |
| 20260506211411 | 10 | 315 | 0.0 | 0.0 | 0.00 | 0.00 | 0.00 | 75 | 919.7 |
| 20260506211303 | 10 | 45 | 12.9 | 0.0 | 0.00 | 0.00 | 0.00 | 75 | 919.6 |
| 20260506211155 | 10 | 0 | 25.7 | 0.0 | 0.00 | 0.00 | 0.00 | 75 | 919.6 |
| 20260506211046 | 10 | 0 | 38.6 | 0.0 | 0.00 | 0.00 | 0.00 | 75 | 919.5 |
| 20260506210938 | 10 | 90 | 57.9 | 0.0 | 0.00 | 0.00 | 0.00 | 75 | 919.5 |
| 20260506210830 | 10 | 0 | 70.8 | 0.0 | 0.00 | 0.00 | 0.00 | 75 | 919.5 |
| 20260506210722 | 10 | 0 | 74.0 | 0.0 | 0.00 | 0.00 | 0.00 | 76 | 919.4 |
| 20260506210613 | 10 | 0 | 49.9 | 0.0 | 0.00 | 0.00 | 0.00 | 76 | 919.4 |
| 20260506210505 | 10 | 45 | 86.9 | 0.0 | 0.00 | 0.00 | 0.00 | 76 | 919.4 |
| 20260506210357 | 10 | 0 | 91.7 | 0.0 | 0.00 | 0.00 | 0.00 | 76 | 919.4 |
| 20260506210248 | 10 | 315 | 16.1 | 0.0 | 0.00 | 0.00 | 0.00 | 75 | 919.4 |
| 20260506210140 | 10 | 90 | 90.1 | 0.0 | 0.00 | 0.00 | 0.00 | 75 | 919.5 |
| 20260506210032 | 10 | 315 | 48.3 | 0.0 | 0.00 | 0.00 | 0.00 | 75 | 919.4 |
| 20260506205924 | 10 | 45 | 6.4 | 0.0 | 0.00 | 0.00 | 0.00 | 75 | 919.4 |
| 20260506205815 | 10 | 315 | 27.4 | 0.0 | 0.00 | 0.00 | 0.00 | 75 | 919.4 |
| 20260506205707 | 10 | 0 | 27.4 | 0.0 | 0.00 | 0.00 | 0.00 | 75 | 919.4 |
| 20260506205559 | 10 | 315 | 20.9 | 0.0 | 0.00 | 0.00 | 0.00 | 75 | 919.4 |
| 20260506205450 | 10 | 45 | 66.0 | 0.0 | 0.00 | 0.00 | 0.00 | 75 | 919.3 |
| 20260506205342 | 10 | 45 | 38.6 | 0.0 | 0.00 | 0.00 | 0.00 | 75 | 919.3 |
| 20260506205234 | 10 | 315 | 4.8 | 0.0 | 0.00 | 0.00 | 0.00 | 75 | 919.3 |
| 20260506205126 | 10 | 315 | 0.0 | 0.0 | 0.00 | 0.00 | 0.00 | 75 | 919.3 |
| 20260506205018 | 10 | 270 | 41.8 | 0.0 | 0.00 | 0.00 | 0.00 | 75 | 919.3 |
| 20260506204909 | 10 | 0 | 78.9 | 0.0 | 0.00 | 0.00 | 0.00 | 75 | 919.3 |
| 20260506204801 | 10 | 90 | 24.1 | 0.0 | 0.00 | 0.00 | 0.00 | 75 | 919.2 |
| 20260506204652 | 10 | 270 | 40.2 | 0.0 | 0.00 | 0.00 | 0.00 | 75 | 919.2 |
| 20260506204544 | 10 | 45 | 80.5 | 0.0 | 0.00 | 0.00 | 0.00 | 75 | 919.2 |
| 20260506204436 | 10 | 45 | 24.1 | 0.0 | 0.00 | 0.00 | 0.00 | 75 | 919.2 |
| 20260506204328 | 10 | 0 | 72.4 | 0.0 | 0.00 | 0.00 | 0.00 | 75 | 919.2 |
| 20260506204219 | 10 | 45 | 86.9 | 0.0 | 0.00 | 0.00 | 0.00 | 75 | 919.1 |
| 20260506204111 | 10 | 0 | 35.4 | 0.0 | 0.00 | 0.00 | 0.00 | 75 | 919.2 |
| 20260506204003 | 10 | 180 | 35.4 | 0.0 | 0.00 | 0.00 | 0.00 | 75 | 919.2 |
| 20260506203855 | 10 | 45 | 48.3 | 0.0 | 0.00 | 0.00 | 0.00 | 75 | 919.1 |
| 20260506203746 | 10 | 45 | 66.0 | 0.0 | 0.00 | 0.00 | 0.00 | 74 | 919.1 |
| 20260506203638 | 10 | 270 | 74.0 | 0.0 | 0.00 | 0.00 | 0.00 | 74 | 919.1 |
| 20260506203530 | 10 | 0 | 93.3 | 0.0 | 0.00 | 0.00 | 0.00 | 74 | 919.1 |
| 20260506203421 | 10 | 45 | 12.9 | 0.0 | 0.00 | 0.00 | 0.00 | 74 | 919.1 |
| 20260506203313 | 10 | 315 | 49.9 | 0.0 | 0.00 | 0.00 | 0.00 | 74 | 919.1 |
| 20260506203205 | 10 | 45 | 11.3 | 0.0 | 0.00 | 0.00 | 0.00 | 74 | 919.1 |
| 20260506203057 | 10 | 0 | 66.0 | 0.0 | 0.00 | 0.00 | 0.00 | 74 | 919.0 |
| 20260506202948 | 10 | 0 | 69.2 | 0.0 | 0.00 | 0.00 | 0.00 | 74 | 919.0 |
| 20260506202840 | 11 | 45 | 61.2 | 0.0 | 0.00 | 0.00 | 0.00 | 74 | 919.0 |
| 20260506202732 | 11 | 45 | 16.1 | 0.0 | 0.00 | 0.00 | 0.00 | 74 | 918.9 |
| 20260506202624 | 11 | 180 | 30.6 | 0.0 | 0.00 | 0.00 | 0.00 | 74 | 919.0 |
| 20260506202515 | 11 | 0 | 3.2 | 0.0 | 0.00 | 0.00 | 0.00 | 74 | 918.9 |
| 20260506202407 | 11 | 45 | 30.6 | 0.0 | 0.00 | 0.00 | 0.00 | 74 | 919.0 |
| 20260506202259 | 11 | 315 | 3.2 | 0.0 | 0.00 | 0.00 | 0.00 | 74 | 918.9 |
| 20260506202150 | 11 | 90 | 33.8 | 0.0 | 0.00 | 0.00 | 0.00 | 74 | 918.9 |
| 20260506202042 | 11 | 0 | 29.0 | 0.0 | 0.00 | 0.00 | 0.00 | 74 | 918.9 |
| 20260506201934 | 11 | 45 | 115.9 | 0.0 | 0.00 | 0.00 | 0.00 | 74 | 918.9 |
| 20260506201826 | 11 | 0 | 123.9 | 0.0 | 0.00 | 0.00 | 0.00 | 74 | 918.9 |
| 20260506201717 | 11 | 45 | 48.3 | 0.0 | 0.00 | 0.00 | 0.00 | 74 | 918.8 |
| 20260506201609 | 11 | 315 | 51.5 | 0.0 | 0.00 | 0.00 | 0.00 | 74 | 918.9 |
| 20260506201501 | 11 | 45 | 22.5 | 0.0 | 0.00 | 0.00 | 0.00 | 74 | 918.9 |
| 20260506201352 | 11 | 90 | 127.1 | 0.0 | 0.00 | 0.00 | 0.00 | 74 | 918.9 |
| 20260506201244 | 11 | 0 | 101.4 | 0.0 | 0.00 | 0.00 | 0.00 | 75 | 918.8 |
| 20260506201136 | 11 | 0 | 61.2 | 0.0 | 0.00 | 0.00 | 0.00 | 75 | 918.8 |
| 20260506201028 | 11 | 315 | 45.1 | 0.0 | 0.00 | 0.00 | 0.00 | 75 | 918.8 |
| 20260506200919 | 11 | 45 | 120.7 | 0.0 | 0.00 | 0.00 | 0.00 | 75 | 918.8 |
| 20260506200811 | 11 | 0 | 90.1 | 0.0 | 0.00 | 0.00 | 0.00 | 75 | 918.7 |
| 20260506200703 | 11 | 0 | 53.1 | 0.0 | 0.00 | 0.00 | 0.00 | 75 | 918.8 |
| 20260506200555 | 11 | 0 | 86.9 | 0.0 | 0.00 | 0.00 | 0.00 | 75 | 918.7 |
| 20260506200446 | 11 | 315 | 33.8 | 0.0 | 0.00 | 0.00 | 0.00 | 75 | 918.7 |
| 20260506200338 | 11 | 45 | 70.8 | 0.0 | 0.00 | 0.00 | 0.00 | 75 | 918.7 |
| 20260506200230 | 11 | 45 | 82.1 | 0.0 | 0.00 | 0.00 | 0.00 | 75 | 918.7 |
| 20260506200121 | 11 | 0 | 29.0 | 0.0 | 0.00 | 0.00 | 0.00 | 75 | 918.7 |
| 20260506200013 | 11 | 90 | 93.3 | 0.0 | 0.00 | 0.00 | 0.00 | 75 | 918.7 |
| 20260506195905 | 12 | 315 | 25.7 | 0.0 | 0.00 | 0.00 | 0.00 | 75 | 918.7 |
| 20260506195757 | 12 | 315 | 41.8 | 0.0 | 0.00 | 0.00 | 0.00 | 75 | 918.8 |
| 20260506195649 | 12 | 0 | 45.1 | 0.0 | 0.00 | 0.00 | 0.00 | 75 | 918.7 |
| 20260506195540 | 12 | 90 | 14.5 | 0.0 | 0.00 | 0.00 | 0.00 | 75 | 918.7 |
| 20260506195432 | 12 | 135 | 11.3 | 0.0 | 0.00 | 0.00 | 0.00 | 75 | 918.7 |
| 20260506195323 | 12 | 180 | 38.6 | 0.0 | 0.00 | 0.00 | 0.00 | 75 | 918.7 |
| 20260506195215 | 12 | 315 | 20.9 | 0.0 | 0.00 | 0.00 | 0.00 | 75 | 918.7 |
| 20260506195107 | 12 | 270 | 6.4 | 0.0 | 0.00 | 0.00 | 0.00 | 75 | 918.7 |
| 20260506194959 | 12 | 0 | 24.1 | 0.0 | 0.00 | 0.00 | 0.00 | 75 | 918.7 |
| 20260506194850 | 12 | 315 | 33.8 | 0.0 | 0.00 | 0.00 | 0.00 | 75 | 918.7 |
| 20260506194742 | 12 | 315 | 37.0 | 0.0 | 0.00 | 0.00 | 0.00 | 75 | 918.7 |
| 20260506194634 | 12 | 0 | 6.4 | 0.0 | 0.00 | 0.00 | 0.00 | 75 | 918.6 |
| 20260506194526 | 12 | 135 | 33.8 | 0.0 | 0.00 | 0.00 | 0.00 | 75 | 918.7 |
| 20260506194417 | 12 | 315 | 16.1 | 0.0 | 0.00 | 0.00 | 0.00 | 75 | 918.7 |
| 20260506194309 | 12 | 90 | 11.3 | 0.0 | 0.00 | 0.00 | 0.00 | 74 | 918.6 |
| 20260506194201 | 12 | 45 | 0.0 | 0.0 | 0.00 | 0.00 | 0.00 | 74 | 918.7 |
| 20260506194052 | 12 | 90 | 1.6 | 0.0 | 0.00 | 0.00 | 0.00 | 74 | 918.6 |
| 20260506193944 | 12 | 315 | 8.0 | 0.0 | 0.00 | 0.00 | 0.00 | 74 | 918.7 |
| 20260506193836 | 12 | 315 | 12.9 | 0.0 | 0.00 | 0.00 | 0.00 | 74 | 918.6 |
| 20260506193728 | 12 | 45 | 20.9 | 0.0 | 0.00 | 0.00 | 0.00 | 74 | 918.6 |
| 20260506193619 | 12 | 90 | 59.5 | 0.0 | 0.00 | 0.00 | 0.00 | 74 | 918.6 |
| 20260506193511 | 12 | 315 | 38.6 | 0.0 | 0.00 | 0.00 | 0.00 | 74 | 918.5 |
| 20260506193403 | 12 | 180 | 33.8 | 0.0 | 0.00 | 0.00 | 0.00 | 74 | 918.5 |
| 20260506193254 | 12 | 135 | 8.0 | 0.0 | 0.00 | 0.00 | 0.00 | 74 | 918.6 |
| 20260506193146 | 12 | 135 | 9.7 | 0.0 | 0.00 | 0.00 | 0.00 | 74 | 918.5 |
| 20260506193038 | 12 | 180 | 17.7 | 0.0 | 0.00 | 0.00 | 0.00 | 74 | 918.6 |
| 20260506192930 | 12 | 90 | 0.0 | 0.0 | 0.00 | 0.00 | 0.00 | 74 | 918.6 |
| 20260506192821 | 12 | 90 | 20.9 | 0.0 | 0.00 | 0.00 | 0.00 | 74 | 918.6 |
| 20260506192713 | 12 | 90 | 0.0 | 0.0 | 0.00 | 0.00 | 0.00 | 75 | 918.5 |
| 20260506192605 | 12 | 45 | 17.7 | 0.0 | 0.00 | 0.00 | 0.00 | 75 | 918.5 |
| 20260506192457 | 12 | 180 | 38.6 | 0.0 | 0.00 | 0.00 | 0.00 | 75 | 918.5 |
| 20260506192348 | 13 | 315 | 12.9 | 0.0 | 0.00 | 0.00 | 0.00 | 75 | 918.4 |
| 20260506192240 | 13 | 45 | 11.3 | 0.0 | 0.00 | 0.00 | 0.00 | 75 | 918.4 |
| 20260506192132 | 13 | 315 | 24.1 | 0.0 | 0.00 | 0.00 | 0.00 | 75 | 918.4 |
| 20260506192023 | 13 | 180 | 11.3 | 0.0 | 0.00 | 0.00 | 0.00 | 75 | 918.4 |
| 20260506191915 | 13 | 315 | 12.9 | 0.0 | 0.00 | 0.00 | 0.00 | 75 | 918.3 |
| 20260506191807 | 13 | 180 | 78.9 | 0.0 | 0.00 | 0.00 | 0.00 | 75 | 918.4 |
| 20260506191659 | 13 | 180 | 56.3 | 0.0 | 0.00 | 0.00 | 0.00 | 75 | 918.3 |
| 20260506191550 | 13 | 180 | 20.9 | 0.0 | 0.00 | 0.00 | 0.00 | 75 | 918.3 |
| 20260506191442 | 13 | 135 | 11.3 | 0.0 | 0.00 | 0.00 | 0.00 | 75 | 918.3 |
| 20260506191334 | 13 | 270 | 12.9 | 0.0 | 0.00 | 0.00 | 0.00 | 75 | 918.2 |
| 20260506191225 | 13 | 180 | 24.1 | 0.0 | 0.00 | 0.00 | 0.00 | 75 | 918.2 |
| 20260506191117 | 13 | 135 | 6.4 | 0.0 | 0.00 | 0.00 | 0.00 | 75 | 918.2 |
| 20260506191009 | 13 | 135 | 17.7 | 0.0 | 0.00 | 0.00 | 0.00 | 75 | 918.2 |
| 20260506190901 | 13 | 135 | 35.4 | 0.0 | 0.00 | 0.00 | 0.00 | 75 | 918.2 |
| 20260506190752 | 13 | 135 | 32.2 | 0.0 | 0.00 | 0.00 | 0.00 | 75 | 918.1 |
| 20260506190644 | 13 | 90 | 29.0 | 0.0 | 0.00 | 0.00 | 0.00 | 75 | 918.1 |
| 20260506190536 | 13 | 0 | 37.0 | 0.0 | 0.00 | 0.00 | 0.00 | 75 | 918.0 |
| 20260506190428 | 13 | 90 | 32.2 | 0.0 | 0.00 | 0.00 | 0.00 | 75 | 918.0 |
| 20260506190319 | 13 | 45 | 24.1 | 0.0 | 0.00 | 0.00 | 0.00 | 75 | 918.0 |
| 20260506190211 | 13 | 135 | 37.0 | 0.0 | 0.00 | 0.00 | 0.00 | 75 | 918.0 |
| 20260506185954 | 13 | 315 | 24.1 | 0.0 | 0.00 | 0.00 | 0.00 | 75 | 918.0 |
| 20260506185846 | 13 | 270 | 35.4 | 0.0 | 0.00 | 0.00 | 0.00 | 75 | 918.0 |
| 20260506185738 | 13 | 90 | 27.4 | 0.0 | 0.00 | 0.00 | 0.00 | 75 | 918.0 |
| 20260506185630 | 13 | 315 | 56.3 | 0.0 | 0.00 | 0.00 | 0.00 | 75 | 918.0 |
| 20260506185521 | 13 | 0 | 30.6 | 0.0 | 0.00 | 0.00 | 0.00 | 75 | 918.0 |
| 20260506185307 | 13 | 270 | 0.0 | 0.0 | 0.00 | 0.00 | 0.00 | 75 | 917.9 |
| 20260506185157 | 13 | 315 | 1.6 | 0.0 | 0.00 | 0.00 | 0.00 | 75 | 917.9 |
| 20260506185048 | 13 | 315 | 24.1 | 0.0 | 0.00 | 0.00 | 0.00 | 75 | 917.8 |
| 20260506184940 | 13 | 0 | 20.9 | 0.0 | 0.00 | 0.00 | 0.00 | 75 | 917.8 |
| 20260506184832 | 13 | 0 | 45.1 | 0.0 | 0.00 | 0.00 | 0.00 | 74 | 917.7 |
| 20260506184723 | 13 | 90 | 4.8 | 0.0 | 0.00 | 0.00 | 0.00 | 74 | 917.7 |
| 20260506184507 | 13 | 270 | 3.2 | 0.0 | 0.00 | 0.00 | 0.00 | 74 | 917.7 |
| 20260506184359 | 13 | 315 | 8.0 | 0.0 | 0.00 | 0.00 | 0.00 | 74 | 917.6 |
| 20260506184250 | 13 | 315 | 8.0 | 0.0 | 0.00 | 0.00 | 0.00 | 74 | 917.6 |
| 20260506184142 | 13 | 315 | 1.6 | 0.0 | 0.00 | 0.00 | 0.00 | 74 | 917.5 |
| 20260506184034 | 13 | 315 | 16.1 | 0.0 | 0.00 | 0.00 | 0.00 | 74 | 917.5 |
| 20260506183926 | 13 | 315 | 17.7 | 0.0 | 0.00 | 0.00 | 0.00 | 74 | 917.5 |
| 20260506183817 | 13 | 0 | 1.6 | 0.0 | 0.00 | 0.00 | 0.00 | 74 | 917.5 |
| 20260506183709 | 13 | 270 | 27.4 | 0.0 | 0.00 | 0.00 | 0.00 | 74 | 917.4 |
| 20260506183601 | 13 | 90 | 14.5 | 0.0 | 0.00 | 0.00 | 0.00 | 74 | 917.5 |
| 20260506183452 | 14 | 315 | 20.9 | 0.0 | 0.00 | 0.00 | 0.00 | 74 | 917.4 |
| 20260506183344 | 14 | 270 | 43.5 | 0.0 | 0.00 | 0.00 | 0.00 | 74 | 917.4 |
| 20260506183236 | 14 | 180 | 12.9 | 0.0 | 0.00 | 0.00 | 0.00 | 74 | 917.4 |
| 20260506183128 | 14 | 270 | 11.3 | 0.0 | 0.00 | 0.00 | 0.00 | 74 | 917.3 |
| 20260506183020 | 14 | 270 | 25.7 | 0.0 | 0.00 | 0.00 | 0.00 | 74 | 917.3 |
| 20260506182911 | 14 | 225 | 16.1 | 0.0 | 0.00 | 0.00 | 0.00 | 74 | 917.3 |
| 20260506182803 | 14 | 180 | 22.5 | 0.0 | 0.00 | 0.00 | 0.00 | 74 | 917.3 |
| 20260506182654 | 14 | 180 | 3.2 | 0.0 | 0.00 | 0.00 | 0.00 | 74 | 917.2 |
| 20260506182546 | 14 | 180 | 11.3 | 0.0 | 0.00 | 0.00 | 0.00 | 74 | 917.2 |
| 20260506182438 | 14 | 180 | 16.1 | 0.0 | 0.00 | 0.00 | 0.00 | 74 | 917.2 |
| 20260506182329 | 14 | 180 | 20.9 | 0.0 | 0.00 | 0.00 | 0.00 | 74 | 917.2 |
| 20260506182221 | 15 | 135 | 12.9 | 0.0 | 0.00 | 0.00 | 0.00 | 74 | 917.2 |
| 20260506182112 | 15 | 135 | 24.1 | 0.0 | 0.00 | 0.00 | 0.00 | 74 | 917.2 |
| 20260506181856 | 15 | 90 | 0.0 | 0.0 | 0.00 | 0.00 | 0.00 | 74 | 917.2 |
| 20260506181747 | 15 | 0 | 0.0 | 0.0 | 0.00 | 0.00 | 0.00 | 74 | 917.2 |
| 20260506181640 | 15 | 225 | 4.8 | 0.0 | 0.00 | 0.00 | 0.00 | 74 | 917.2 |
| 20260506181530 | 15 | 135 | 14.5 | 0.0 | 0.00 | 0.00 | 0.00 | 74 | 917.1 |
| 20260506181422 | 15 | 225 | 37.0 | 0.0 | 0.00 | 0.00 | 0.00 | 74 | 917.1 |
| 20260506181313 | 15 | 225 | 32.2 | 0.0 | 0.00 | 0.00 | 0.00 | 74 | 917.0 |
| 20260506181205 | 15 | 0 | 9.7 | 0.0 | 0.00 | 0.00 | 0.00 | 73 | 917.0 |
| 20260506181056 | 15 | 225 | 0.0 | 0.0 | 0.00 | 0.00 | 0.00 | 73 | 917.0 |
| 20260506180949 | 15 | 45 | 0.0 | 0.0 | 0.00 | 0.00 | 0.00 | 73 | 917.0 |
| 20260506180840 | 15 | 0 | 19.3 | 0.0 | 0.00 | 0.00 | 0.00 | 73 | 916.9 |
| 20260506180731 | 15 | 90 | 1.6 | 0.0 | 0.00 | 0.00 | 0.00 | 73 | 916.9 |
| 20260506180623 | 15 | 0 | 19.3 | 0.0 | 0.00 | 0.00 | 0.00 | 73 | 916.9 |
| 20260506180514 | 15 | 315 | 11.3 | 0.0 | 0.00 | 0.00 | 0.00 | 73 | 916.9 |
| 20260506180406 | 15 | 315 | 0.0 | 0.0 | 0.00 | 0.00 | 0.00 | 73 | 916.8 |
| 20260506180257 | 15 | 0 | 0.0 | 0.0 | 0.00 | 0.00 | 0.00 | 73 | 916.8 |
| 20260506180149 | 15 | 135 | 51.5 | 0.0 | 0.00 | 0.00 | 0.00 | 73 | 916.8 |
| 20260506180040 | 15 | 225 | 62.8 | 0.0 | 0.00 | 0.00 | 0.00 | 73 | 916.8 |
| 20260506175932 | 16 | 180 | 61.2 | 0.0 | 0.00 | 0.00 | 0.00 | 73 | 916.7 |
| 20260506175824 | 16 | 180 | 67.6 | 0.0 | 0.00 | 0.00 | 0.00 | 73 | 916.7 |
| 20260506175715 | 16 | 225 | 51.5 | 0.0 | 0.00 | 0.00 | 0.00 | 73 | 916.7 |
| 20260506175607 | 16 | 135 | 37.0 | 0.0 | 0.00 | 0.00 | 0.00 | 73 | 916.6 |
| 20260506175458 | 16 | 90 | 30.6 | 0.0 | 0.00 | 0.00 | 0.00 | 73 | 916.5 |
| 20260506175350 | 16 | 90 | 19.3 | 0.0 | 0.00 | 0.00 | 0.00 | 73 | 916.5 |
| 20260506175241 | 16 | 90 | 43.5 | 0.0 | 0.00 | 0.00 | 0.00 | 73 | 916.4 |
| 20260506175133 | 16 | 180 | 64.4 | 0.0 | 0.00 | 0.00 | 0.00 | 73 | 916.5 |
| 20260506175025 | 16 | 135 | 32.2 | 0.0 | 0.00 | 0.00 | 0.00 | 73 | 916.4 |
| 20260506174916 | 16 | 135 | 1.6 | 0.0 | 0.00 | 0.00 | 0.00 | 73 | 916.4 |
| 20260506174808 | 16 | 315 | 30.6 | 0.0 | 0.00 | 0.00 | 0.00 | 73 | 916.4 |
| 20260506174659 | 16 | 135 | 12.9 | 0.0 | 0.00 | 0.00 | 0.00 | 73 | 916.3 |
| 20260506174551 | 16 | 225 | 51.5 | 0.0 | 0.00 | 0.00 | 0.00 | 73 | 916.3 |
| 20260506174442 | 16 | 180 | 37.0 | 0.0 | 0.00 | 0.00 | 0.00 | 73 | 916.2 |
| 20260506174334 | 16 | 180 | 51.5 | 0.0 | 0.00 | 0.00 | 0.00 | 73 | 916.2 |
| 20260506174225 | 16 | 180 | 35.4 | 0.0 | 0.00 | 0.00 | 0.00 | 73 | 916.2 |
| 20260506174117 | 16 | 135 | 1.6 | 0.0 | 0.00 | 0.00 | 0.00 | 73 | 916.1 |
| 20260506174009 | 16 | 135 | 54.7 | 0.0 | 0.00 | 0.00 | 0.00 | 73 | 916.0 |
| 20260506173900 | 16 | 180 | 33.8 | 0.0 | 0.00 | 0.00 | 0.00 | 73 | 916.0 |
| 20260506173752 | 17 | 180 | 0.0 | 0.0 | 0.00 | 0.00 | 0.00 | 73 | 915.9 |
| 20260506173643 | 17 | 90 | 4.8 | 0.0 | 0.00 | 0.00 | 0.00 | 73 | 915.9 |
| 20260506173535 | 17 | 45 | 12.9 | 0.0 | 0.00 | 0.00 | 0.00 | 73 | 915.8 |
| 20260506173426 | 17 | 180 | 27.4 | 0.0 | 0.00 | 0.00 | 0.00 | 73 | 915.9 |
| 20260506173318 | 17 | 180 | 27.4 | 0.0 | 0.00 | 0.00 | 0.00 | 73 | 915.8 |
| 20260506173209 | 17 | 225 | 19.3 | 0.0 | 0.00 | 0.00 | 0.00 | 73 | 915.8 |
| 20260506173101 | 17 | 180 | 11.3 | 0.0 | 0.00 | 0.00 | 0.00 | 73 | 915.8 |
| 20260506172953 | 17 | 270 | 20.9 | 0.0 | 0.00 | 0.00 | 0.00 | 73 | 915.8 |
| 20260506172844 | 17 | 135 | 4.8 | 0.0 | 0.00 | 0.00 | 0.00 | 73 | 915.8 |
| 20260506172736 | 17 | 180 | 45.1 | 0.0 | 0.00 | 0.00 | 0.00 | 73 | 915.8 |
| 20260506172627 | 17 | 225 | 64.4 | 0.0 | 0.00 | 0.00 | 0.00 | 73 | 915.8 |
| 20260506172519 | 17 | 90 | 38.6 | 0.0 | 0.00 | 0.00 | 0.00 | 73 | 915.8 |
| 20260506172410 | 17 | 90 | 3.2 | 0.0 | 0.00 | 0.00 | 0.00 | 73 | 915.8 |
| 20260506172306 | 17 | 45 | 19.3 | 0.0 | 0.00 | 0.00 | 0.00 | 73 | 915.7 |
| 20260506172153 | 17 | 90 | 3.2 | 0.0 | 0.00 | 0.00 | 0.00 | 73 | 915.6 |
| 20260506172045 | 17 | 180 | 6.4 | 0.0 | 0.00 | 0.00 | 0.00 | 72 | 915.6 |
| 20260506171937 | 17 | 0 | 30.6 | 0.0 | 0.00 | 0.00 | 0.00 | 72 | 915.5 |
| 20260506171828 | 17 | 45 | 9.7 | 0.0 | 0.00 | 0.00 | 0.00 | 72 | 915.5 |
| 20260506171720 | 17 | 45 | 9.7 | 0.0 | 0.00 | 0.00 | 0.00 | 72 | 915.5 |
| 20260506171611 | 17 | 0 | 6.4 | 0.0 | 0.00 | 0.00 | 0.00 | 72 | 915.4 |
| 20260506171503 | 18 | 135 | 67.6 | 0.0 | 0.00 | 0.00 | 0.00 | 72 | 915.5 |
| 20260506171354 | 18 | 90 | 53.1 | 0.0 | 0.00 | 0.00 | 0.00 | 72 | 915.5 |
| 20260506171246 | 18 | 135 | 49.9 | 0.0 | 0.00 | 0.00 | 0.00 | 72 | 915.5 |
| 20260506171138 | 18 | 135 | 66.0 | 0.0 | 0.00 | 0.00 | 0.00 | 72 | 915.5 |
| 20260506171029 | 18 | 135 | 86.9 | 0.0 | 0.00 | 0.00 | 0.00 | 72 | 915.4 |
| 20260506170921 | 18 | 135 | 40.2 | 0.0 | 0.00 | 0.00 | 0.00 | 72 | 915.4 |
| 20260506170812 | 18 | 135 | 32.2 | 0.0 | 0.00 | 0.00 | 0.00 | 72 | 915.4 |
| 20260506170704 | 18 | 45 | 62.8 | 0.0 | 0.00 | 0.00 | 0.00 | 72 | 915.4 |
| 20260506170555 | 18 | 135 | 83.7 | 0.0 | 0.00 | 0.00 | 0.00 | 72 | 915.4 |
| 20260506170447 | 18 | 90 | 140.0 | 0.0 | 0.00 | 0.00 | 0.00 | 72 | 915.4 |
| 20260506170338 | 18 | 180 | 217.3 | 0.0 | 0.00 | 0.00 | 0.00 | 72 | 915.3 |
| 20260506170230 | 18 | 180 | 57.9 | 0.0 | 0.00 | 0.00 | 0.00 | 72 | 915.4 |
| 20260506170122 | 18 | 90 | 99.8 | 0.0 | 0.00 | 0.00 | 0.00 | 72 | 915.3 |
| 20260506170013 | 18 | 180 | 25.7 | 0.0 | 0.00 | 0.00 | 0.00 | 72 | 915.3 |
| 20260506165905 | 18 | 90 | 103.0 | 0.0 | 0.00 | 0.00 | 0.00 | 71 | 915.2 |
| 20260506165756 | 18 | 90 | 93.3 | 0.0 | 0.00 | 0.00 | 0.00 | 71 | 915.3 |
| 20260506165648 | 18 | 90 | 165.8 | 0.0 | 0.00 | 0.00 | 0.00 | 71 | 915.2 |
| 20260506165539 | 18 | 135 | 41.8 | 0.0 | 0.00 | 0.00 | 0.00 | 71 | 915.3 |
| 20260506165431 | 18 | 225 | 64.4 | 0.0 | 0.00 | 0.00 | 0.00 | 71 | 915.3 |
| 20260506165322 | 18 | 90 | 24.1 | 0.0 | 0.00 | 0.00 | 0.00 | 71 | 915.2 |
| 20260506165214 | 18 | 90 | 33.8 | 0.0 | 0.00 | 0.00 | 0.00 | 71 | 915.1 |
| 20260506165106 | 18 | 225 | 25.7 | 0.0 | 0.00 | 0.00 | 0.00 | 71 | 915.2 |
| 20260506164957 | 18 | 0 | 101.4 | 0.0 | 0.00 | 0.00 | 0.00 | 71 | 915.2 |
| 20260506164849 | 18 | 180 | 37.0 | 0.0 | 0.00 | 0.00 | 0.00 | 71 | 915.3 |
| 20260506164740 | 18 | 180 | 78.9 | 0.0 | 0.00 | 0.00 | 0.00 | 71 | 915.2 |
| 20260506164632 | 19 | 225 | 160.9 | 0.0 | 0.00 | 0.00 | 0.00 | 71 | 915.2 |
| 20260506164523 | 19 | 135 | 59.5 | 0.0 | 0.00 | 0.00 | 0.00 | 71 | 915.2 |
| 20260506164415 | 19 | 90 | 20.9 | 0.0 | 0.00 | 0.00 | 0.00 | 71 | 915.0 |
| 20260506164307 | 19 | 90 | 51.5 | 0.0 | 0.00 | 0.00 | 0.00 | 71 | 915.0 |
| 20260506164158 | 19 | 180 | 132.0 | 0.0 | 0.00 | 0.00 | 0.00 | 71 | 915.0 |
| 20260506164050 | 19 | 135 | 19.3 | 0.0 | 0.00 | 0.00 | 0.00 | 71 | 915.2 |
| 20260506163941 | 20 | 135 | 85.3 | 0.0 | 0.00 | 0.00 | 0.00 | 71 | 915.1 |
| 20260506163833 | 20 | 90 | 20.9 | 0.0 | 0.00 | 0.00 | 0.00 | 70 | 915.1 |
| 20260506163724 | 20 | 315 | 33.8 | 0.0 | 0.00 | 0.00 | 0.00 | 70 | 915.0 |
| 20260506163616 | 20 | 90 | 25.7 | 0.0 | 0.00 | 0.00 | 0.00 | 70 | 915.0 |
| 20260506163508 | 20 | 135 | 30.6 | 0.0 | 0.00 | 0.00 | 0.00 | 70 | 915.0 |
| 20260506163359 | 20 | 270 | 141.6 | 0.0 | 0.00 | 0.00 | 0.00 | 70 | 914.9 |
| 20260506163251 | 20 | 180 | 11.3 | 0.0 | 0.00 | 0.00 | 0.00 | 70 | 914.9 |
| 20260506163142 | 20 | 90 | 27.4 | 0.0 | 0.00 | 0.00 | 0.00 | 70 | 915.0 |
| 20260506163034 | 20 | 90 | 20.9 | 0.0 | 0.00 | 0.00 | 0.00 | 70 | 914.9 |
| 20260506162925 | 20 | 225 | 82.1 | 0.0 | 0.00 | 0.00 | 0.00 | 69 | 914.9 |
| 20260506162817 | 20 | 135 | 37.0 | 0.0 | 0.00 | 0.00 | 0.00 | 69 | 914.9 |
| 20260506162708 | 21 | 90 | 115.9 | 0.0 | 0.00 | 0.00 | 0.00 | 69 | 914.9 |
| 20260506162600 | 21 | 135 | 19.3 | 0.0 | 0.00 | 0.00 | 0.00 | 69 | 914.9 |
| 20260506162451 | 21 | 90 | 56.3 | 0.0 | 0.00 | 0.00 | 0.00 | 69 | 914.8 |
| 20260506162343 | 21 | 135 | 37.0 | 0.0 | 0.00 | 0.00 | 0.00 | 69 | 914.9 |
| 20260506162235 | 21 | 180 | 57.9 | 0.0 | 0.00 | 0.00 | 0.00 | 69 | 914.8 |
| 20260506162126 | 21 | 225 | 91.7 | 0.0 | 0.00 | 0.00 | 0.00 | 69 | 914.8 |
| 20260506162018 | 21 | 90 | 125.5 | 0.0 | 0.00 | 0.00 | 0.00 | 69 | 914.8 |
| 20260506161909 | 21 | 135 | 82.1 | 0.0 | 0.00 | 0.00 | 0.00 | 69 | 914.7 |
| 20260506161801 | 21 | 180 | 74.0 | 0.0 | 0.00 | 0.00 | 0.00 | 69 | 914.8 |
| 20260506161652 | 21 | 225 | 54.7 | 0.0 | 0.00 | 0.00 | 0.00 | 69 | 914.7 |
| 20260506161544 | 21 | 90 | 54.7 | 0.0 | 0.00 | 0.00 | 0.00 | 69 | 914.7 |
| 20260506161436 | 21 | 225 | 77.2 | 0.0 | 0.00 | 0.00 | 0.00 | 69 | 914.8 |
| 20260506161327 | 21 | 225 | 61.2 | 0.0 | 0.00 | 0.00 | 0.00 | 70 | 914.7 |
| 20260506161219 | 21 | 180 | 74.0 | 0.0 | 0.00 | 0.00 | 0.00 | 70 | 914.7 |
| 20260506161110 | 21 | 135 | 27.4 | 0.0 | 0.00 | 0.00 | 0.00 | 70 | 914.7 |
| 20260506161002 | 21 | 90 | 45.1 | 0.0 | 0.00 | 0.00 | 0.00 | 70 | 914.7 |
| 20260506160853 | 21 | 180 | 33.8 | 0.0 | 0.00 | 0.00 | 0.00 | 70 | 914.7 |
| 20260506160745 | 21 | 180 | 83.7 | 0.0 | 0.00 | 0.00 | 0.00 | 70 | 914.6 |
| 20260506160636 | 21 | 225 | 45.1 | 0.0 | 0.00 | 0.00 | 0.00 | 70 | 914.7 |
| 20260506160528 | 21 | 90 | 25.7 | 0.0 | 0.00 | 0.00 | 0.00 | 70 | 914.7 |
| 20260506160420 | 21 | 180 | 49.9 | 0.0 | 0.00 | 0.00 | 0.00 | 70 | 914.7 |
| 20260506160311 | 21 | 135 | 49.9 | 0.0 | 0.00 | 0.00 | 0.00 | 70 | 914.7 |
| 20260506160203 | 21 | 225 | 51.5 | 0.0 | 0.00 | 0.00 | 0.00 | 70 | 914.7 |
| 20260506160054 | 21 | 180 | 49.9 | 0.0 | 0.00 | 0.00 | 0.00 | 69 | 914.7 |
| 20260506155946 | 21 | 90 | 69.2 | 0.0 | 0.00 | 0.00 | 0.00 | 69 | 914.7 |
| 20260506155837 | 21 | 180 | 46.7 | 0.0 | 0.00 | 0.00 | 0.00 | 69 | 914.6 |
| 20260506155729 | 21 | 90 | 51.5 | 0.0 | 0.00 | 0.00 | 0.00 | 69 | 914.6 |
| 20260506155620 | 21 | 180 | 41.8 | 0.0 | 0.00 | 0.00 | 0.00 | 69 | 914.7 |
| 20260506155512 | 21 | 180 | 45.1 | 0.0 | 0.00 | 0.00 | 0.00 | 69 | 914.7 |
| 20260506155404 | 21 | 135 | 69.2 | 0.0 | 0.00 | 0.00 | 0.00 | 69 | 914.7 |
| 20260506155147 | 21 | 180 | 62.8 | 0.0 | 0.00 | 0.00 | 0.00 | 68 | 914.6 |
| 20260506155038 | 22 | 180 | 45.1 | 0.0 | 0.00 | 0.00 | 0.00 | 68 | 914.6 |
| 20260506154930 | 22 | 180 | 53.1 | 0.0 | 0.00 | 0.00 | 0.00 | 68 | 914.6 |
| 20260506154821 | 22 | 225 | 135.2 | 0.0 | 0.00 | 0.00 | 0.00 | 68 | 914.6 |
| 20260506154713 | 22 | 180 | 91.7 | 0.0 | 0.00 | 0.00 | 0.00 | 67 | 914.6 |
| 20260506154605 | 22 | 180 | 95.0 | 0.0 | 0.00 | 0.00 | 0.00 | 67 | 914.5 |
| 20260506154456 | 22 | 90 | 104.6 | 0.0 | 0.00 | 0.00 | 0.00 | 67 | 914.5 |
| 20260506154348 | 22 | 135 | 45.1 | 0.0 | 0.00 | 0.00 | 0.00 | 67 | 914.5 |
| 20260506154239 | 22 | 90 | 33.8 | 0.0 | 0.00 | 0.00 | 0.00 | 67 | 914.5 |
| 20260506154131 | 23 | 90 | 19.3 | 0.0 | 0.00 | 0.00 | 0.00 | 66 | 914.5 |
| 20260506154023 | 23 | 180 | 91.7 | 0.0 | 0.00 | 0.00 | 0.00 | 66 | 914.5 |
| 20260506153914 | 23 | 180 | 64.4 | 0.0 | 0.00 | 0.00 | 0.00 | 66 | 914.5 |
| 20260506153805 | 23 | 225 | 57.9 | 0.0 | 0.00 | 0.00 | 0.00 | 65 | 914.4 |
| 20260506153657 | 23 | 225 | 107.8 | 0.0 | 0.00 | 0.00 | 0.00 | 65 | 914.4 |
| 20260506153549 | 23 | 225 | 51.5 | 0.0 | 0.00 | 0.00 | 0.00 | 65 | 914.4 |
| 20260506153440 | 24 | 270 | 80.5 | 0.0 | 0.00 | 0.00 | 0.00 | 65 | 914.4 |
| 20260506153332 | 24 | 135 | 74.0 | 0.0 | 0.00 | 0.00 | 0.00 | 64 | 914.5 |
| 20260506153223 | 24 | 180 | 45.1 | 0.0 | 0.00 | 0.00 | 0.00 | 64 | 914.5 |
| 20260506153115 | 25 | 225 | 75.6 | 0.0 | 0.00 | 0.00 | 0.00 | 64 | 914.4 |
| 20260506153006 | 25 | 180 | 67.6 | 0.0 | 0.00 | 0.00 | 0.00 | 64 | 914.3 |
| 20260506152858 | 25 | 180 | 111.0 | 0.0 | 0.00 | 0.00 | 0.00 | 64 | 914.4 |
| 20260506152749 | 25 | 90 | 83.7 | 0.0 | 0.00 | 0.00 | 0.00 | 63 | 914.2 |
| 20260506152641 | 25 | 180 | 85.3 | 0.0 | 0.00 | 0.00 | 0.00 | 63 | 914.4 |
| 20260506152533 | 26 | 180 | 95.0 | 0.0 | 0.00 | 0.00 | 0.00 | 63 | 914.3 |
| 20260506152424 | 26 | 225 | 25.7 | 0.0 | 0.00 | 0.00 | 0.00 | 62 | 914.2 |
| 20260506152316 | 26 | 90 | 117.5 | 0.0 | 0.00 | 0.00 | 0.00 | 62 | 914.2 |
| 20260506152207 | 26 | 135 | 106.2 | 0.0 | 0.00 | 0.00 | 0.00 | 62 | 914.2 |
| 20260506152059 | 26 | 180 | 133.6 | 0.0 | 0.00 | 0.00 | 0.00 | 62 | 914.2 |
| 20260506151950 | 26 | 225 | 164.2 | 0.0 | 0.00 | 0.00 | 0.00 | 62 | 914.1 |
| 20260506151842 | 26 | 180 | 85.3 | 0.0 | 0.00 | 0.00 | 0.00 | 62 | 914.2 |
| 20260506151734 | 26 | 180 | 88.5 | 0.0 | 0.00 | 0.00 | 0.00 | 62 | 914.2 |
| 20260506151625 | 26 | 225 | 78.9 | 0.0 | 0.00 | 0.00 | 0.00 | 62 | 914.3 |
| 20260506151517 | 26 | 90 | 103.0 | 0.0 | 0.00 | 0.00 | 0.00 | 64 | 914.3 |
| 20260506151408 | 24 | 180 | 70.8 | 0.0 | 0.00 | 0.00 | 0.00 | 65 | 914.3 |
| 20260506151300 | 24 | 90 | 80.5 | 0.0 | 0.00 | 0.00 | 0.00 | 66 | 914.2 |
| 20260506151151 | 24 | 90 | 66.0 | 0.0 | 0.00 | 0.00 | 0.00 | 66 | 914.2 |
| 20260506151043 | 24 | 90 | 64.4 | 0.0 | 0.00 | 0.00 | 0.00 | 66 | 914.2 |
| 20260506150934 | 24 | 180 | 78.9 | 0.0 | 0.00 | 0.00 | 0.00 | 66 | 914.3 |
| 20260506150826 | 24 | 180 | 40.2 | 0.0 | 0.00 | 0.00 | 0.00 | 66 | 914.2 |
| 20260506150718 | 24 | 135 | 3.2 | 0.0 | 0.00 | 0.00 | 0.00 | 66 | 914.1 |
| 20260506150609 | 24 | 180 | 6.4 | 0.0 | 0.00 | 0.00 | 0.00 | 66 | 914.3 |
| 20260506150501 | 24 | 270 | 20.9 | 0.0 | 0.00 | 0.00 | 0.00 | 66 | 914.2 |
| 20260506150352 | 24 | 225 | 9.7 | 0.0 | 0.00 | 0.00 | 0.00 | 65 | 914.2 |
| 20260506150244 | 24 | 270 | 37.0 | 0.0 | 0.00 | 0.00 | 0.00 | 65 | 914.2 |
| 20260506150136 | 24 | 225 | 59.5 | 0.0 | 0.00 | 0.00 | 0.00 | 65 | 914.2 |
| 20260506150027 | 24 | 135 | 62.8 | 0.0 | 0.00 | 0.00 | 0.00 | 65 | 914.3 |
| 20260506145918 | 24 | 135 | 74.0 | 0.0 | 0.00 | 0.00 | 0.00 | 65 | 914.4 |
| 20260506145810 | 24 | 90 | 74.0 | 0.0 | 0.00 | 0.00 | 0.00 | 65 | 914.2 |
| 20260506145702 | 25 | 180 | 12.9 | 0.0 | 0.00 | 0.00 | 0.00 | 64 | 914.2 |
| 20260506145553 | 25 | 225 | 30.6 | 0.0 | 0.00 | 0.00 | 0.00 | 64 | 914.2 |
| 20260506145445 | 25 | 90 | 57.9 | 0.0 | 0.00 | 0.00 | 0.00 | 63 | 914.2 |
| 20260506145336 | 25 | 180 | 24.1 | 0.0 | 0.00 | 0.00 | 0.00 | 63 | 914.3 |
| 20260506145228 | 25 | 0 | 49.9 | 0.0 | 0.00 | 0.00 | 0.00 | 62 | 914.2 |
| 20260506145119 | 25 | 180 | 186.7 | 0.0 | 0.00 | 0.00 | 0.00 | 62 | 914.3 |
| 20260506145011 | 26 | 180 | 59.5 | 0.0 | 0.00 | 0.00 | 0.00 | 62 | 914.3 |
| 20260506144902 | 26 | 135 | 99.8 | 0.0 | 0.00 | 0.00 | 0.00 | 62 | 914.3 |
| 20260506144754 | 26 | 225 | 33.8 | 0.0 | 0.00 | 0.00 | 0.00 | 62 | 914.1 |
| 20260506144646 | 26 | 180 | 138.4 | 0.0 | 0.00 | 0.00 | 0.00 | 61 | 914.2 |
| 20260506144537 | 26 | 225 | 66.0 | 0.0 | 0.00 | 0.00 | 0.00 | 61 | 914.3 |
| 20260506144429 | 27 | 135 | 8.0 | 0.0 | 0.00 | 0.00 | 0.00 | 60 | 914.2 |
| 20260506144320 | 27 | 45 | 19.3 | 0.0 | 0.00 | 0.00 | 0.00 | 60 | 914.1 |
| 20260506144212 | 27 | 90 | 70.8 | 0.0 | 0.00 | 0.00 | 0.00 | 59 | 914.1 |
| 20260506144103 | 28 | 135 | 4.8 | 0.0 | 0.00 | 0.00 | 0.00 | 58 | 914.0 |
| 20260506143955 | 28 | 180 | 70.8 | 0.0 | 0.00 | 0.00 | 0.00 | 57 | 913.9 |
| 20260506143846 | 29 | 180 | 78.9 | 0.0 | 0.00 | 0.00 | 0.00 | 56 | 913.9 |
| 20260506143738 | 30 | 180 | 95.0 | 0.0 | 0.00 | 0.00 | 0.00 | 55 | 913.9 |
| 20260506143630 | 30 | 180 | 98.2 | 0.0 | 0.00 | 0.00 | 0.00 | 55 | 914.0 |
| 20260506143521 | 31 | 180 | 107.8 | 0.0 | 0.00 | 0.00 | 0.00 | 55 | 913.9 |
| 20260506143413 | 31 | 180 | 70.8 | 0.0 | 0.00 | 0.00 | 0.00 | 54 | 913.9 |
| 20260506143304 | 32 | 180 | 29.0 | 0.0 | 0.00 | 0.00 | 0.00 | 54 | 913.9 |
| 20260506143156 | 33 | 270 | 35.4 | 0.0 | 0.00 | 0.00 | 0.00 | 52 | 913.8 |
| 20260506143047 | 34 | 225 | 48.3 | 0.0 | 0.00 | 0.00 | 0.00 | 50 | 913.9 |
| 20260506142939 | 36 | 180 | 96.6 | 0.0 | 0.00 | 0.00 | 0.00 | 48 | 913.9 |
| 20260506142830 | 37 | 180 | 175.4 | 0.0 | 0.00 | 0.00 | 0.00 | 46 | 913.9 |
| 20260506142722 | 33 | 180 | 98.2 | 0.0 | 0.00 | 0.00 | 0.00 | 51 | 913.9 |
| 20260506142614 | 35 | 180 | 22.5 | 0.0 | 0.00 | 0.00 | 0.00 | 51 | 913.9 |
| 20260506142505 | 35 | 225 | 104.6 | 0.0 | 0.00 | 0.00 | 0.00 | 50 | 913.9 |
| 20260506142357 | 37 | 225 | 130.4 | 0.0 | 0.00 | 0.00 | 0.00 | 49 | 913.9 |
| 20260506142248 | 38 | 135 | 3.2 | 0.0 | 0.00 | 0.00 | 0.00 | 47 | 914.0 |
| 20260506142140 | 38 | 315 | 4.8 | 0.0 | 0.00 | 0.00 | 0.00 | 47 | 913.8 |
| 20260506142031 | 38 | 90 | 75.6 | 0.0 | 0.00 | 0.00 | 0.00 | 46 | 913.9 |
| 20260506141923 | 40 | 90 | 104.6 | 0.0 | 0.00 | 0.00 | 0.00 | 44 | 913.9 |
| 20260506141815 | 41 | 225 | 117.5 | 0.0 | 0.00 | 0.00 | 0.00 | 43 | 914.0 |
| 20260506141706 | 40 | 180 | 146.5 | 0.0 | 0.00 | 0.00 | 0.00 | 43 | 913.9 |
| 20260506141558 | 42 | 45 | 115.9 | 0.0 | 0.00 | 0.00 | 0.00 | 42 | 913.8 |
| 20260506141449 | 43 | 315 | 61.2 | 0.0 | 0.00 | 0.00 | 0.00 | 40 | 913.8 |
| 20260506141341 | 46 | 90 | 148.1 | 0.0 | 0.00 | 0.00 | 0.00 | 38 | 914.1 |
| 20260506141232 | 48 | 180 | 70.8 | 0.0 | 0.00 | 0.00 | 0.00 | 37 | 914.1 |
| 20260506141124 | 51 | 90 | 80.5 | 0.0 | 0.00 | 0.00 | 0.00 | 35 | 914.3 |
| 20260506141015 | 53 | 180 | 143.2 | 0.0 | 0.00 | 0.00 | 0.00 | 33 | 914.2 |
| 20260506140907 | 53 | 180 | 138.4 | 0.0 | 0.00 | 0.00 | 0.00 | 35 | 914.4 |
| 20260506140759 | 55 | 180 | 101.4 | 0.0 | 0.00 | 0.00 | 0.00 | 34 | 914.1 |
| 20260506140650 | 56 | 180 | 120.7 | 0.0 | 0.00 | 0.00 | 0.00 | 33 | 914.0 |
| 20260506140542 | 57 | 90 | 91.7 | 0.0 | 0.00 | 0.00 | 0.00 | 33 | 914.0 |
| 20260506140433 | 56 | 225 | 57.9 | 0.0 | 0.00 | 0.00 | 0.00 | 34 | 914.1 |
| 20260506140325 | 56 | 225 | 12.9 | 0.0 | 0.00 | 0.00 | 0.00 | 35 | 914.1 |
| 20260506140217 | 55 | 0 | 40.2 | 0.0 | 0.00 | 0.00 | 0.00 | 35 | 914.1 |
| 20260506140108 | 54 | 180 | 12.9 | 0.0 | 0.00 | 0.00 | 0.00 | 35 | 914.1 |
| 20260506135959 | 54 | 135 | 64.4 | 0.0 | 0.00 | 0.00 | 0.00 | 34 | 914.2 |
| 20260506135851 | 53 | 90 | 80.5 | 0.0 | 0.00 | 0.00 | 0.00 | 34 | 914.3 |
| 20260506135743 | 53 | 90 | 43.5 | 0.0 | 0.00 | 0.00 | 0.00 | 35 | 914.4 |
| 20260506135634 | 52 | 135 | 111.0 | 0.0 | 0.00 | 0.00 | 0.00 | 37 | 914.4 |
| 20260506135417 | 50 | 45 | 12.9 | 0.0 | 0.00 | 0.00 | 0.00 | 40 | 914.1 |
| 20260506135309 | 47 | 225 | 33.8 | 0.0 | 0.00 | 0.00 | 0.00 | 40 | 914.2 |
| 20260506135200 | 45 | 45 | 25.7 | 0.0 | 0.00 | 0.00 | 0.00 | 42 | 914.2 |
| 20260506135052 | 43 | 315 | 109.4 | 0.0 | 0.00 | 0.00 | 0.00 | 43 | 914.2 |
| 20260506134944 | 42 | 0 | 40.2 | 0.0 | 0.00 | 0.00 | 0.00 | 44 | 914.2 |
| 20260506134835 | 40 | 180 | 24.1 | 0.0 | 0.00 | 0.00 | 0.00 | 45 | 914.3 |
| 20260506134727 | 38 | 180 | 49.9 | 0.0 | 0.00 | 0.00 | 0.00 | 46 | 914.4 |
| 20260506134618 | 38 | 135 | 78.9 | 0.0 | 0.00 | 0.00 | 0.00 | 46 | 914.4 |
| 20260506134510 | 40 | 180 | 32.2 | 0.0 | 0.00 | 0.00 | 0.00 | 45 | 914.3 |
| 20260506134401 | 42 | 225 | 146.5 | 0.0 | 0.00 | 0.00 | 0.00 | 44 | 914.2 |
| 20260506134253 | 44 | 180 | 38.6 | 0.0 | 0.00 | 0.00 | 0.00 | 42 | 914.1 |
| 20260506134144 | 46 | 180 | 56.3 | 0.0 | 0.00 | 0.00 | 0.00 | 41 | 914.2 |
| 20260506134036 | 47 | 315 | 29.0 | 0.0 | 0.00 | 0.00 | 0.00 | 39 | 914.1 |
| 20260506133928 | 46 | 225 | 16.1 | 0.0 | 0.00 | 0.00 | 0.00 | 40 | 914.3 |
| 20260506133819 | 46 | 45 | 119.1 | 0.0 | 0.00 | 0.00 | 0.00 | 40 | 914.2 |
| 20260506133712 | 46 | 90 | 61.2 | 0.0 | 0.00 | 0.00 | 0.00 | 40 | 914.3 |
| 20260506133602 | 45 | 315 | 130.4 | 0.0 | 0.00 | 0.00 | 0.00 | 41 | 914.2 |
| 20260506133454 | 45 | 0 | 24.1 | 0.0 | 0.00 | 0.00 | 0.00 | 42 | 914.3 |
| 20260506133345 | 43 | 0 | 17.7 | 0.0 | 0.00 | 0.00 | 0.00 | 43 | 914.3 |
| 20260506133237 | 41 | 315 | 29.0 | 0.0 | 0.00 | 0.00 | 0.00 | 44 | 914.4 |
| 20260506133128 | 40 | 270 | 30.6 | 0.0 | 0.00 | 0.00 | 0.00 | 45 | 914.4 |
| 20260506133020 | 40 | 135 | 33.8 | 0.0 | 0.00 | 0.00 | 0.00 | 45 | 914.4 |
| 20260506132912 | 41 | 90 | 57.9 | 0.0 | 0.00 | 0.00 | 0.00 | 43 | 914.3 |
| 20260506132803 | 42 | 180 | 19.3 | 0.0 | 0.00 | 0.00 | 0.00 | 43 | 914.3 |
| 20260506132655 | 43 | 90 | 46.7 | 0.0 | 0.00 | 0.00 | 0.00 | 42 | 914.4 |
| 20260506132546 | 44 | 135 | 1.6 | 0.0 | 0.00 | 0.00 | 0.00 | 43 | 914.4 |
| 20260506132438 | 45 | 315 | 51.5 | 0.0 | 0.00 | 0.00 | 0.00 | 42 | 914.3 |
| 20260506132329 | 49 | 180 | 88.5 | 0.0 | 0.00 | 0.00 | 0.00 | 38 | 914.2 |
| 20260506132221 | 49 | 90 | 130.4 | 0.0 | 0.00 | 0.00 | 0.00 | 38 | 914.3 |
| 20260506132112 | 48 | 315 | 25.7 | 0.0 | 0.00 | 0.00 | 0.00 | 40 | 914.3 |
| 20260506132005 | 48 | 45 | 24.1 | 0.0 | 0.00 | 0.00 | 0.00 | 40 | 914.3 |
| 20260506131856 | 47 | 135 | 49.9 | 0.0 | 0.00 | 0.00 | 0.00 | 41 | 914.3 |
| 20260506131747 | 46 | 45 | 38.6 | 0.0 | 0.00 | 0.00 | 0.00 | 42 | 914.2 |
| 20260506131639 | 47 | 0 | 49.9 | 0.0 | 0.00 | 0.00 | 0.00 | 40 | 914.4 |
| 20260506131530 | 46 | 0 | 27.4 | 0.0 | 0.00 | 0.00 | 0.00 | 41 | 914.4 |
| 20260506131422 | 45 | 315 | 59.5 | 0.0 | 0.00 | 0.00 | 0.00 | 42 | 914.4 |
| 20260506131313 | 43 | 315 | 29.0 | 0.0 | 0.00 | 0.00 | 0.00 | 43 | 914.4 |
| 20260506131205 | 40 | 90 | 25.7 | 0.0 | 0.00 | 0.00 | 0.00 | 46 | 914.5 |
| 20260506131057 | 37 | 45 | 22.5 | 0.0 | 0.00 | 0.00 | 0.00 | 48 | 914.5 |
| 20260506130948 | 37 | 90 | 46.7 | 0.0 | 0.00 | 0.00 | 0.00 | 49 | 914.5 |
| 20260506130840 | 38 | 135 | 16.1 | 0.0 | 0.00 | 0.00 | 0.00 | 47 | 914.4 |
| 20260506130731 | 40 | 180 | 98.2 | 0.0 | 0.00 | 0.00 | 0.00 | 45 | 914.4 |
| 20260506130623 | 42 | 90 | 67.6 | 0.0 | 0.00 | 0.00 | 0.00 | 43 | 914.4 |
| 20260506130406 | 45 | 225 | 59.5 | 0.0 | 0.00 | 0.00 | 0.00 | 41 | 914.4 |
| 20260506130257 | 43 | 180 | 82.1 | 0.0 | 0.00 | 0.00 | 0.00 | 42 | 914.6 |
| 20260506130149 | 45 | 180 | 25.7 | 0.0 | 0.00 | 0.00 | 0.00 | 41 | 914.5 |
| 20260506130041 | 43 | 135 | 72.4 | 0.0 | 0.00 | 0.00 | 0.00 | 43 | 914.4 |
| 20260506125932 | 42 | 135 | 35.4 | 0.0 | 0.00 | 0.00 | 0.00 | 43 | 914.6 |
| 20260506125824 | 40 | 135 | 25.7 | 0.0 | 0.00 | 0.00 | 0.00 | 45 | 914.5 |
| 20260506125715 | 37 | 180 | 30.6 | 0.0 | 0.00 | 0.00 | 0.00 | 48 | 914.5 |
| 20260506125607 | 38 | 180 | 107.8 | 0.0 | 0.00 | 0.00 | 0.00 | 46 | 914.4 |
| 20260506125458 | 40 | 135 | 85.3 | 0.0 | 0.00 | 0.00 | 0.00 | 45 | 914.5 |
| 20260506125350 | 42 | 180 | 85.3 | 0.0 | 0.00 | 0.00 | 0.00 | 43 | 914.4 |
| 20260506125241 | 45 | 225 | 112.7 | 0.0 | 0.00 | 0.00 | 0.00 | 41 | 914.5 |
| 20260506125133 | 44 | 135 | 128.7 | 0.0 | 0.00 | 0.00 | 0.00 | 41 | 914.5 |
| 20260506125025 | 42 | 180 | 67.6 | 0.0 | 0.00 | 0.00 | 0.00 | 42 | 914.5 |
| 20260506124916 | 40 | 225 | 70.8 | 0.0 | 0.00 | 0.00 | 0.00 | 44 | 914.5 |
| 20260506124808 | 38 | 225 | 175.4 | 0.0 | 0.00 | 0.00 | 0.00 | 47 | 914.4 |
| 20260506124659 | 36 | 180 | 66.0 | 0.0 | 0.00 | 0.00 | 0.00 | 49 | 914.4 |
| 20260506124551 | 36 | 225 | 69.2 | 0.0 | 0.00 | 0.00 | 0.00 | 48 | 914.5 |
| 20260506124442 | 35 | 225 | 51.5 | 0.0 | 0.00 | 0.00 | 0.00 | 49 | 914.6 |
| 20260506124334 | 34 | 180 | 98.2 | 0.0 | 0.00 | 0.00 | 0.00 | 50 | 914.6 |
| 20260506124226 | 35 | 225 | 109.4 | 0.0 | 0.00 | 0.00 | 0.00 | 49 | 914.5 |
| 20260506124117 | 37 | 180 | 85.3 | 0.0 | 0.00 | 0.00 | 0.00 | 47 | 914.5 |
| 20260506124009 | 39 | 180 | 119.1 | 0.0 | 0.00 | 0.00 | 0.00 | 46 | 914.5 |
| 20260506123900 | 42 | 180 | 146.5 | 0.0 | 0.00 | 0.00 | 0.00 | 43 | 914.6 |
| 20260506123752 | 41 | 180 | 17.7 | 0.0 | 0.00 | 0.00 | 0.00 | 45 | 914.6 |
| 20260506123643 | 43 | 135 | 48.3 | 0.0 | 0.00 | 0.00 | 0.00 | 42 | 914.6 |
| 20260506123535 | 42 | 225 | 33.8 | 0.0 | 0.00 | 0.00 | 0.00 | 44 | 914.7 |
| 20260506123426 | 40 | 90 | 91.7 | 0.0 | 0.00 | 0.00 | 0.00 | 46 | 914.7 |
| 20260506123318 | 40 | 180 | 88.5 | 0.0 | 0.00 | 0.00 | 0.00 | 47 | 914.8 |
| 20260506123210 | -12 | 180 | 46.7 | 0.0 | 0.00 | 0.00 | 0.00 | 50 | 914.8 |
| 20260506123101 | 34 | 45 | 127.1 | 0.0 | 0.00 | 0.00 | 0.00 | 53 | 914.7 |
| 20260506122953 | 35 | 0 | 14.5 | 0.0 | 0.00 | 0.00 | 0.00 | 53 | 914.7 |
| 20260506122844 | 35 | 135 | 83.7 | 0.0 | 0.00 | 0.00 | 0.00 | 53 | 914.8 |
| 20260506122736 | 35 | 135 | 37.0 | 0.0 | 0.00 | 0.00 | 0.00 | 54 | 914.9 |
| 20260506122627 | 32 | 225 | 66.0 | 0.0 | 0.00 | 0.00 | 0.00 | 57 | 914.8 |
| 20260506122519 | 33 | 180 | 40.2 | 0.0 | 0.00 | 0.00 | 0.00 | 58 | 915.0 |
| 20260506122410 | 33 | 0 | 8.0 | 0.0 | 0.00 | 0.00 | 0.00 | 57 | 914.9 |
| 20260506122305 | 32 | 0 | 27.4 | 0.0 | 0.00 | 0.00 | 0.00 | 58 | 914.9 |
| 20260506122154 | 31 | 180 | 0.0 | 0.0 | 0.00 | 0.00 | 0.00 | 59 | 915.0 |
| 20260506122045 | 32 | 0 | 43.5 | 0.0 | 0.00 | 0.00 | 0.00 | 59 | 915.0 |
| 20260506121937 | 32 | 45 | 40.2 | 0.0 | 0.00 | 0.00 | 0.00 | 58 | 914.9 |
| 20260506121828 | 32 | 0 | 45.1 | 0.0 | 0.00 | 0.00 | 0.00 | 59 | 914.9 |
| 20260506121720 | 31 | 315 | 86.9 | 0.0 | 0.00 | 0.00 | 0.00 | 60 | 914.8 |
| 20260506121611 | 30 | 0 | 72.4 | 0.0 | 0.00 | 0.00 | 0.00 | 61 | 914.7 |
| 20260506121503 | 30 | 315 | 19.3 | 0.0 | 0.00 | 0.00 | 0.00 | 61 | 914.8 |
| 20260506121355 | 30 | 315 | 8.0 | 0.0 | 0.00 | 0.00 | 0.00 | 60 | 914.8 |
| 20260506121246 | 30 | 315 | 35.4 | 0.0 | 0.00 | 0.00 | 0.00 | 60 | 914.8 |
| 20260506121138 | 31 | 315 | 20.9 | 0.0 | 0.00 | 0.00 | 0.00 | 60 | 914.9 |
| 20260506121029 | 31 | 315 | 51.5 | 0.0 | 0.00 | 0.00 | 0.00 | 59 | 914.9 |
| 20260506120921 | 31 | 90 | 14.5 | 0.0 | 0.00 | 0.00 | 0.00 | 59 | 914.9 |
| 20260506120812 | 31 | 180 | 27.4 | 0.0 | 0.00 | 0.00 | 0.00 | 59 | 915.0 |
| 20260506120704 | 31 | 180 | 86.9 | 0.0 | 0.00 | 0.00 | 0.00 | 59 | 914.9 |
| 20260506120555 | 31 | 45 | 30.6 | 0.0 | 0.00 | 0.00 | 0.00 | 59 | 914.9 |
| 20260506120447 | 31 | 270 | 70.8 | 0.0 | 0.00 | 0.00 | 0.00 | 59 | 914.9 |
| 20260506120338 | 31 | 225 | 70.8 | 0.0 | 0.00 | 0.00 | 0.00 | 59 | 914.9 |
| 20260506120230 | 31 | 90 | 3.2 | 0.0 | 0.00 | 0.00 | 0.00 | 59 | 914.9 |
| 20260506120122 | 31 | 315 | 35.4 | 0.0 | 0.00 | 0.00 | 0.00 | 59 | 914.8 |
| 20260506120013 | 31 | 180 | 16.1 | 0.0 | 0.00 | 0.00 | 0.00 | 59 | 914.9 |
| 20260506115905 | 31 | 90 | 22.5 | 0.0 | 0.00 | 0.00 | 0.00 | 59 | 914.9 |
| 20260506115756 | 31 | 180 | 27.4 | 0.0 | 0.00 | 0.00 | 0.00 | 59 | 914.9 |
| 20260506115648 | 31 | 0 | 3.2 | 0.0 | 0.00 | 0.00 | 0.00 | 59 | 915.0 |
| 20260506115539 | 31 | 315 | 107.8 | 0.0 | 0.00 | 0.00 | 0.00 | 58 | 915.0 |
| 20260506115431 | 32 | 225 | 3.2 | 0.0 | 0.00 | 0.00 | 0.00 | 59 | 915.1 |
| 20260506115323 | 32 | 0 | 1.6 | 0.0 | 0.00 | 0.00 | 0.00 | 58 | 915.1 |
| 20260506115214 | 32 | 315 | 27.4 | 0.0 | 0.00 | 0.00 | 0.00 | 57 | 915.0 |
| 20260506115106 | 33 | 0 | 16.1 | 0.0 | 0.00 | 0.00 | 0.00 | 57 | 914.9 |
| 20260506114957 | 33 | 0 | 14.5 | 0.0 | 0.00 | 0.00 | 0.00 | 57 | 914.9 |
| 20260506114849 | 34 | 225 | 43.5 | 0.0 | 0.00 | 0.00 | 0.00 | 56 | 914.9 |
| 20260506114740 | 35 | 225 | 45.1 | 0.0 | 0.00 | 0.00 | 0.00 | 55 | 914.9 |
| 20260506114632 | 35 | 225 | 19.3 | 0.0 | 0.00 | 0.00 | 0.00 | 55 | 915.0 |
| 20260506114523 | 35 | 135 | 37.0 | 0.0 | 0.00 | 0.00 | 0.00 | 54 | 915.1 |
| 20260506114415 | 36 | 0 | 80.5 | 0.0 | 0.00 | 0.00 | 0.00 | 54 | 915.1 |
| 20260506114307 | 36 | 0 | 30.6 | 0.0 | 0.00 | 0.00 | 0.00 | 54 | 915.2 |
| 20260506114158 | 37 | 180 | 53.1 | 0.0 | 0.00 | 0.00 | 0.00 | 53 | 915.1 |
| 20260506114050 | 37 | 135 | 29.0 | 0.0 | 0.00 | 0.00 | 0.00 | 53 | 915.1 |
| 20260506113941 | 38 | 180 | 0.0 | 0.0 | 0.00 | 0.00 | 0.00 | 53 | 915.0 |
| 20260506113833 | 40 | 270 | 70.8 | 0.0 | 0.00 | 0.00 | 0.00 | 52 | 914.9 |
| 20260506113724 | 41 | 0 | 27.4 | 0.0 | 0.00 | 0.00 | 0.00 | 51 | 914.9 |
| 20260506113617 | 41 | 270 | 29.0 | 0.0 | 0.00 | 0.00 | 0.00 | 50 | 914.9 |
| 20260506113507 | 42 | 270 | 9.7 | 0.0 | 0.00 | 0.00 | 0.00 | 49 | 914.9 |
| 20260506113359 | 43 | 270 | 20.9 | 0.0 | 0.00 | 0.00 | 0.00 | 47 | 914.9 |
| 20260506113251 | 43 | 315 | 14.5 | 0.0 | 0.00 | 0.00 | 0.00 | 47 | 915.0 |
| 20260506113142 | 42 | 270 | 40.2 | 0.0 | 0.00 | 0.00 | 0.00 | 47 | 915.0 |
| 20260506113034 | 42 | 180 | 33.8 | 0.0 | 0.00 | 0.00 | 0.00 | 46 | 915.1 |
| 20260506112925 | 41 | 135 | 91.7 | 0.0 | 0.00 | 0.00 | 0.00 | 47 | 915.2 |
| 20260506112817 | 42 | 180 | 69.2 | 0.0 | 0.00 | 0.00 | 0.00 | 46 | 915.1 |
| 20260506112708 | 43 | 135 | 38.6 | 0.0 | 0.00 | 0.00 | 0.00 | 46 | 915.1 |
| 20260506112600 | 42 | 45 | 53.1 | 0.0 | 0.00 | 0.00 | 0.00 | 46 | 915.0 |
| 20260506112452 | 42 | 315 | 64.4 | 0.0 | 0.00 | 0.00 | 0.00 | 46 | 915.0 |
| 20260506112343 | 41 | 0 | 38.6 | 0.0 | 0.00 | 0.00 | 0.00 | 46 | 915.1 |
| 20260506112235 | 41 | 90 | 22.5 | 0.0 | 0.00 | 0.00 | 0.00 | 47 | 915.1 |
| 20260506112126 | 40 | 90 | 30.6 | 0.0 | 0.00 | 0.00 | 0.00 | 47 | 915.2 |
| 20260506112018 | 40 | 135 | 72.4 | 0.0 | 0.00 | 0.00 | 0.00 | 48 | 915.2 |
| 20260506111909 | 40 | 135 | 119.1 | 0.0 | 0.00 | 0.00 | 0.00 | 47 | 915.2 |
| 20260506111801 | 41 | 225 | 69.2 | 0.0 | 0.00 | 0.00 | 0.00 | 47 | 915.0 |
| 20260506111652 | 42 | 180 | 75.6 | 0.0 | 0.00 | 0.00 | 0.00 | 47 | 915.0 |
| 20260506111545 | 43 | 180 | 91.7 | 0.0 | 0.00 | 0.00 | 0.00 | 45 | 915.0 |
| 20260506111436 | 43 | 180 | 25.7 | 0.0 | 0.00 | 0.00 | 0.00 | 45 | 915.0 |
| 20260506111327 | 43 | 90 | 123.9 | 0.0 | 0.00 | 0.00 | 0.00 | 45 | 915.1 |
| 20260506111219 | 43 | 180 | 103.0 | 0.0 | 0.00 | 0.00 | 0.00 | 45 | 915.0 |
| 20260506111110 | 43 | 225 | 67.6 | 0.0 | 0.00 | 0.00 | 0.00 | 45 | 915.0 |
| 20260506111002 | 43 | 180 | 138.4 | 0.0 | 0.00 | 0.00 | 0.00 | 45 | 915.1 |
| 20260506110853 | 43 | 180 | 69.2 | 0.0 | 0.00 | 0.00 | 0.00 | 47 | 915.2 |
| 20260506110745 | 43 | 180 | 115.9 | 0.0 | 0.00 | 0.00 | 0.00 | 46 | 915.2 |
| 20260506110636 | 43 | 180 | 57.9 | 0.0 | 0.00 | 0.00 | 0.00 | 47 | 915.1 |
| 20260506110528 | 43 | 180 | 104.6 | 0.0 | 0.00 | 0.00 | 0.00 | 47 | 915.2 |
| 20260506110420 | 43 | 135 | 46.7 | 0.0 | 0.00 | 0.00 | 0.00 | 49 | 915.2 |
| 20260506110311 | 43 | 90 | 1.6 | 0.0 | 0.00 | 0.00 | 0.00 | 49 | 915.1 |
| 20260506110203 | 42 | 315 | 93.3 | 0.0 | 0.00 | 0.00 | 0.00 | 49 | 915.1 |
| 20260506110054 | 42 | 0 | 43.5 | 0.0 | 0.00 | 0.00 | 0.00 | 49 | 915.2 |
| 20260506105946 | 41 | 0 | 48.3 | 0.0 | 0.00 | 0.00 | 0.00 | 50 | 915.2 |
| 20260506105837 | 41 | 135 | 35.4 | 0.0 | 0.00 | 0.00 | 0.00 | 50 | 915.2 |
| 20260506105729 | 40 | 180 | 27.4 | 0.0 | 0.00 | 0.00 | 0.00 | 50 | 915.3 |
| 20260506105621 | 40 | 180 | 27.4 | 0.0 | 0.00 | 0.00 | 0.00 | 50 | 915.4 |
| 20260506105512 | 39 | 225 | 59.5 | 0.0 | 0.00 | 0.00 | 0.00 | 50 | 915.5 |
| 20260506105404 | 39 | 180 | 86.9 | 0.0 | 0.00 | 0.00 | 0.00 | 49 | 915.4 |
| 20260506105255 | 39 | 180 | 74.0 | 0.0 | 0.00 | 0.00 | 0.00 | 50 | 915.3 |
| 20260506105147 | 39 | 90 | 82.1 | 0.0 | 0.00 | 0.00 | 0.00 | 50 | 915.4 |
| 20260506105038 | 39 | 225 | 112.7 | 0.0 | 0.00 | 0.00 | 0.00 | 50 | 915.4 |
| 20260506104930 | 39 | 180 | 169.0 | 0.0 | 0.00 | 0.00 | 0.00 | 49 | 915.4 |
| 20260506104821 | 39 | 180 | 53.1 | 0.0 | 0.00 | 0.00 | 0.00 | 50 | 915.5 |
| 20260506104713 | 39 | 225 | 127.1 | 0.0 | 0.00 | 0.00 | 0.00 | 50 | 915.4 |
| 20260506104605 | 40 | 180 | 149.7 | 0.0 | 0.00 | 0.00 | 0.00 | 52 | 915.5 |
| 20260506104456 | 40 | 90 | 77.2 | 0.0 | 0.00 | 0.00 | 0.00 | 54 | 915.4 |
| 20260506104348 | 39 | 225 | 54.7 | 0.0 | 0.00 | 0.00 | 0.00 | 55 | 915.4 |
| 20260506104239 | 39 | 225 | 57.9 | 0.0 | 0.00 | 0.00 | 0.00 | 57 | 915.5 |
| 20260506104131 | 38 | 315 | 20.9 | 0.0 | 0.00 | 0.00 | 0.00 | 57 | 915.5 |
| 20260506104022 | 38 | 225 | 27.4 | 0.0 | 0.00 | 0.00 | 0.00 | 56 | 915.5 |
| 20260506103914 | 37 | 225 | 119.1 | 0.0 | 0.00 | 0.00 | 0.00 | 55 | 915.6 |
| 20260506103805 | 37 | 180 | 180.2 | 0.0 | 0.00 | 0.00 | 0.00 | 55 | 915.6 |
| 20260506103657 | 37 | 90 | 172.2 | 0.0 | 0.00 | 0.00 | 0.00 | 54 | 915.5 |
| 20260506103549 | 38 | 180 | 107.8 | 0.0 | 0.00 | 0.00 | 0.00 | 55 | 915.6 |
| 20260506103440 | 38 | 225 | 30.6 | 0.0 | 0.00 | 0.00 | 0.00 | 57 | 915.6 |
| 20260506103332 | 37 | 90 | 16.1 | 0.0 | 0.00 | 0.00 | 0.00 | 58 | 915.6 |
| 20260506103223 | -12 | 180 | 57.9 | 0.0 | 0.00 | 0.00 | 0.00 | 58 | 915.7 |
| 20260506103115 | 37 | 90 | 130.4 | 0.0 | 0.00 | 0.00 | 0.00 | 58 | 915.7 |
| 20260506103006 | 37 | 180 | 12.9 | 0.0 | 0.00 | 0.00 | 0.00 | 59 | 915.7 |
| 20260506102858 | 36 | 180 | 53.1 | 0.0 | 0.00 | 0.00 | 0.00 | 59 | 915.8 |
| 20260506102749 | 36 | 180 | 45.1 | 0.0 | 0.00 | 0.00 | 0.00 | 59 | 915.8 |
| 20260506102641 | 36 | 180 | 56.3 | 0.0 | 0.00 | 0.00 | 0.00 | 58 | 915.7 |
| 20260506102533 | 36 | 225 | 167.4 | 0.0 | 0.00 | 0.00 | 0.00 | 57 | 915.8 |
| 20260506102424 | 36 | 180 | 117.5 | 0.0 | 0.00 | 0.00 | 0.00 | 59 | 915.7 |
| 20260506102316 | 36 | 180 | 29.0 | 0.0 | 0.00 | 0.00 | 0.00 | 61 | 915.8 |
| 20260506102207 | 35 | 135 | 32.2 | 0.0 | 0.00 | 0.00 | 0.00 | 62 | 915.8 |
| 20260506102059 | 35 | 225 | 117.5 | 0.0 | 0.00 | 0.00 | 0.00 | 61 | 915.9 |
| 20260506101950 | 34 | 180 | 112.7 | 0.0 | 0.00 | 0.00 | 0.00 | 62 | 915.9 |
| 20260506101842 | 33 | 180 | 62.8 | 0.0 | 0.00 | 0.00 | 0.00 | 63 | 916.0 |
| 20260506101734 | 33 | 180 | 37.0 | 0.0 | 0.00 | 0.00 | 0.00 | 63 | 916.0 |
| 20260506101625 | 32 | 225 | 17.7 | 0.0 | 0.00 | 0.00 | 0.00 | 60 | 916.0 |
| 20260506101517 | 32 | 225 | 22.5 | 0.0 | 0.00 | 0.00 | 0.00 | 59 | 916.1 |
| 20260506101408 | 32 | 180 | 77.2 | 0.0 | 0.00 | 0.00 | 0.00 | 58 | 916.1 |
| 20260506101300 | 33 | 225 | 99.8 | 0.0 | 0.00 | 0.00 | 0.00 | 59 | 916.1 |
| 20260506101151 | 33 | 180 | 109.4 | 0.0 | 0.00 | 0.00 | 0.00 | 60 | 916.1 |
| 20260506101043 | 33 | 180 | 85.3 | 0.0 | 0.00 | 0.00 | 0.00 | 61 | 916.2 |
| 20260506100934 | 32 | 180 | 107.8 | 0.0 | 0.00 | 0.00 | 0.00 | 63 | 916.1 |
| 20260506100826 | 32 | 180 | 16.1 | 0.0 | 0.00 | 0.00 | 0.00 | 66 | 916.0 |
| 20260506100718 | 31 | 225 | 35.4 | 0.0 | 0.00 | 0.00 | 0.00 | 65 | 916.1 |
| 20260506100609 | 30 | 180 | 82.1 | 0.0 | 0.00 | 0.00 | 0.00 | 64 | 916.2 |
| 20260506100501 | 30 | 180 | 19.3 | 0.0 | 0.00 | 0.00 | 0.00 | 67 | 916.2 |
| 20260506100352 | 28 | 180 | 8.0 | 0.0 | 0.00 | 0.00 | 0.00 | 66 | 916.2 |
| 20260506100244 | 28 | 135 | 62.8 | 0.0 | 0.00 | 0.00 | 0.00 | 64 | 916.3 |
| 20260506100135 | 27 | 180 | 64.4 | 0.0 | 0.00 | 0.00 | 0.00 | 63 | 916.3 |
| 20260506100027 | 27 | 225 | 66.0 | 0.0 | 0.00 | 0.00 | 0.00 | 64 | 916.3 |
| 20260506095918 | 27 | 225 | 27.4 | 0.0 | 0.00 | 0.00 | 0.00 | 65 | 916.3 |
| 20260506095810 | 27 | 270 | 78.9 | 0.0 | 0.00 | 0.00 | 0.00 | 65 | 916.3 |
| 20260506095702 | 26 | 180 | 75.6 | 0.0 | 0.00 | 0.00 | 0.00 | 64 | 916.3 |
| 20260506095553 | 26 | 225 | 115.9 | 0.0 | 0.00 | 0.00 | 0.00 | 64 | 916.3 |
| 20260506095445 | 26 | 225 | 30.6 | 0.0 | 0.00 | 0.00 | 0.00 | 64 | 916.4 |
| 20260506095336 | 26 | 180 | 29.0 | 0.0 | 0.00 | 0.00 | 0.00 | 64 | 916.4 |
| 20260506095228 | 26 | 225 | 98.2 | 0.0 | 0.00 | 0.00 | 0.00 | 62 | 916.4 |
| 20260506095119 | 26 | 180 | 130.4 | 0.0 | 0.00 | 0.00 | 0.00 | 62 | 916.4 |
| 20260506095011 | 26 | 180 | 96.6 | 0.0 | 0.00 | 0.00 | 0.00 | 62 | 916.4 |
| 20260506094903 | 26 | 135 | 133.6 | 0.0 | 0.00 | 0.00 | 0.00 | 62 | 916.4 |
| 20260506094754 | 27 | 180 | 111.0 | 0.0 | 0.00 | 0.00 | 0.00 | 62 | 916.4 |
| 20260506094646 | 27 | 180 | 88.5 | 0.0 | 0.00 | 0.00 | 0.00 | 63 | 916.5 |
| 20260506094537 | 27 | 225 | 16.1 | 0.0 | 0.00 | 0.00 | 0.00 | 64 | 916.4 |
| 20260506094429 | 27 | 90 | 74.0 | 0.0 | 0.00 | 0.00 | 0.00 | 64 | 916.5 |
| 20260506094320 | 27 | 225 | 41.8 | 0.0 | 0.00 | 0.00 | 0.00 | 64 | 916.5 |
| 20260506094212 | 27 | 315 | 59.5 | 0.0 | 0.00 | 0.00 | 0.00 | 63 | 916.4 |
| 20260506094103 | 27 | 270 | 45.1 | 0.0 | 0.00 | 0.00 | 0.00 | 62 | 916.4 |
| 20260506093955 | 27 | 135 | 64.4 | 0.0 | 0.00 | 0.00 | 0.00 | 62 | 916.4 |
| 20260506093847 | 28 | 90 | 40.2 | 0.0 | 0.00 | 0.00 | 0.00 | 63 | 916.4 |
| 20260506093738 | 28 | 135 | 46.7 | 0.0 | 0.00 | 0.00 | 0.00 | 63 | 916.5 |
| 20260506093630 | 28 | 180 | 64.4 | 0.0 | 0.00 | 0.00 | 0.00 | 63 | 916.4 |
| 20260506093521 | 28 | 180 | 69.2 | 0.0 | 0.00 | 0.00 | 0.00 | 63 | 916.5 |
| 20260506093413 | 28 | 180 | 30.6 | 0.0 | 0.00 | 0.00 | 0.00 | 63 | 916.4 |
| 20260506093304 | 29 | 225 | 72.4 | 0.0 | 0.00 | 0.00 | 0.00 | 63 | 916.5 |
| 20260506093156 | 30 | 180 | 37.0 | 0.0 | 0.00 | 0.00 | 0.00 | 64 | 916.5 |
| 20260506093048 | 30 | 135 | 41.8 | 0.0 | 0.00 | 0.00 | 0.00 | 64 | 916.5 |
| 20260506092939 | 30 | 0 | 48.3 | 0.0 | 0.00 | 0.00 | 0.00 | 64 | 916.4 |
| 20260506092831 | 30 | 0 | 41.8 | 0.0 | 0.00 | 0.00 | 0.00 | 64 | 916.4 |
| 20260506092722 | 30 | 315 | 1.6 | 0.0 | 0.00 | 0.00 | 0.00 | 64 | 916.4 |
| 20260506092614 | 30 | 45 | 6.4 | 0.0 | 0.00 | 0.00 | 0.00 | 63 | 916.4 |
| 20260506092505 | 30 | 45 | 14.5 | 0.0 | 0.00 | 0.00 | 0.00 | 63 | 916.4 |
| 20260506092357 | 30 | 270 | 12.9 | 0.0 | 0.00 | 0.00 | 0.00 | 63 | 916.3 |
| 20260506092140 | 31 | 0 | 16.1 | 0.0 | 0.00 | 0.00 | 0.00 | 61 | 916.3 |
| 20260506092032 | 31 | 180 | 33.8 | 0.0 | 0.00 | 0.00 | 0.00 | 61 | 916.2 |
| 20260506091923 | 31 | 180 | 20.9 | 0.0 | 0.00 | 0.00 | 0.00 | 61 | 916.2 |
| 20260506091815 | 32 | 315 | 14.5 | 0.0 | 0.00 | 0.00 | 0.00 | 61 | 916.2 |
| 20260506091706 | 32 | 45 | 40.2 | 0.0 | 0.00 | 0.00 | 0.00 | 60 | 916.2 |
| 20260506091558 | 32 | 0 | 51.5 | 0.0 | 0.00 | 0.00 | 0.00 | 59 | 916.2 |
| 20260506091449 | 33 | 315 | 54.7 | 0.0 | 0.00 | 0.00 | 0.00 | 60 | 916.2 |
| 20260506091341 | 33 | 135 | 45.1 | 0.0 | 0.00 | 0.00 | 0.00 | 61 | 916.4 |
| 20260506091232 | 33 | 135 | 90.1 | 0.0 | 0.00 | 0.00 | 0.00 | 62 | 916.3 |
| 20260506091124 | 32 | 225 | 3.2 | 0.0 | 0.00 | 0.00 | 0.00 | 62 | 916.2 |
| 20260506091016 | 32 | 270 | 4.8 | 0.0 | 0.00 | 0.00 | 0.00 | 61 | 916.3 |
| 20260506090907 | 32 | 90 | 29.0 | 0.0 | 0.00 | 0.00 | 0.00 | 59 | 916.3 |
| 20260506090759 | 32 | 90 | 72.4 | 0.0 | 0.00 | 0.00 | 0.00 | 58 | 916.3 |
| 20260506090650 | 33 | 225 | 148.1 | 0.0 | 0.00 | 0.00 | 0.00 | 57 | 916.3 |
| 20260506090542 | 33 | 180 | 114.3 | 0.0 | 0.00 | 0.00 | 0.00 | 57 | 916.2 |
| 20260506090433 | 33 | 180 | 69.2 | 0.0 | 0.00 | 0.00 | 0.00 | 58 | 916.2 |
| 20260506090325 | 34 | 270 | 96.6 | 0.0 | 0.00 | 0.00 | 0.00 | 59 | 916.2 |
| 20260506090216 | 34 | 225 | 143.2 | 0.0 | 0.00 | 0.00 | 0.00 | 59 | 916.2 |
| 20260506090108 | 34 | 180 | 111.0 | 0.0 | 0.00 | 0.00 | 0.00 | 63 | 916.2 |
| 20260506090000 | 34 | 180 | 14.5 | 0.0 | 0.00 | 0.00 | 0.00 | 65 | 916.3 |
| 20260506085851 | 33 | 45 | 59.5 | 0.0 | 0.00 | 0.00 | 0.00 | 65 | 916.3 |
| 20260506085743 | 33 | 315 | 29.0 | 0.0 | 0.00 | 0.00 | 0.00 | 65 | 916.4 |
| 20260506085634 | 32 | 315 | 37.0 | 0.0 | 0.00 | 0.00 | 0.00 | 65 | 916.3 |
| 20260506085526 | 32 | 90 | 3.2 | 0.0 | 0.00 | 0.00 | 0.00 | 66 | 916.3 |
| 20260506085417 | 32 | 315 | 14.5 | 0.0 | 0.00 | 0.00 | 0.00 | 65 | 916.3 |
| 20260506085309 | 32 | 0 | 40.2 | 0.0 | 0.00 | 0.00 | 0.00 | 64 | 916.3 |
| 20260506085201 | 32 | 315 | 17.7 | 0.0 | 0.00 | 0.00 | 0.00 | 64 | 916.3 |
| 20260506085052 | 32 | 45 | 14.5 | 0.0 | 0.00 | 0.00 | 0.00 | 64 | 916.3 |
| 20260506084944 | 32 | 90 | 45.1 | 0.0 | 0.00 | 0.00 | 0.00 | 63 | 916.3 |
| 20260506084835 | 32 | 90 | 25.7 | 0.0 | 0.00 | 0.00 | 0.00 | 63 | 916.3 |
| 20260506084727 | 32 | 45 | 43.5 | 0.0 | 0.00 | 0.00 | 0.00 | 64 | 916.4 |
| 20260506084618 | 32 | 90 | 53.1 | 0.0 | 0.00 | 0.00 | 0.00 | 65 | 916.4 |
| 20260506084510 | 32 | 45 | 11.3 | 0.0 | 0.00 | 0.00 | 0.00 | 67 | 916.4 |
| 20260506084401 | 32 | 0 | 57.9 | 0.0 | 0.00 | 0.00 | 0.00 | 67 | 916.3 |
| 20260506084253 | 32 | 45 | 86.9 | 0.0 | 0.00 | 0.00 | 0.00 | 67 | 916.3 |
| 20260506084145 | 31 | 0 | 48.3 | 0.0 | 0.00 | 0.00 | 0.00 | 67 | 916.3 |
| 20260506084036 | 31 | 45 | 41.8 | 0.0 | 0.00 | 0.00 | 0.00 | 68 | 916.3 |
| 20260506083928 | 31 | 45 | 53.1 | 0.0 | 0.00 | 0.00 | 0.00 | 67 | 916.4 |
| 20260506083819 | 31 | 0 | 74.0 | 0.0 | 0.00 | 0.00 | 0.00 | 67 | 916.3 |
| 20260506083711 | 31 | 0 | 77.2 | 0.0 | 0.00 | 0.00 | 0.00 | 67 | 916.4 |
| 20260506083602 | 31 | 0 | 74.0 | 0.0 | 0.00 | 0.00 | 0.00 | 67 | 916.4 |
| 20260506083454 | 30 | 45 | 56.3 | 0.0 | 0.00 | 0.00 | 0.00 | 69 | 916.4 |
| 20260506083346 | 30 | 315 | 70.8 | 0.0 | 0.00 | 0.00 | 0.00 | 69 | 916.4 |
| 20260506083237 | 29 | 0 | 53.1 | 0.0 | 0.00 | 0.00 | 0.00 | 70 | 916.4 |
| 20260506083129 | 28 | 90 | 45.1 | 0.0 | 0.00 | 0.00 | 0.00 | 70 | 916.5 |
| 20260506083020 | 28 | 0 | 53.1 | 0.0 | 0.00 | 0.00 | 0.00 | 70 | 916.6 |
| 20260506082912 | 27 | 0 | 14.5 | 0.0 | 0.00 | 0.00 | 0.00 | 70 | 916.6 |
| 20260506082803 | 27 | 0 | 29.0 | 0.0 | 0.00 | 0.00 | 0.00 | 71 | 916.6 |
| 20260506082655 | 26 | 315 | 48.3 | 0.0 | 0.00 | 0.00 | 0.00 | 71 | 916.5 |
| 20260506082546 | 26 | 45 | 35.4 | 0.0 | 0.00 | 0.00 | 0.00 | 71 | 916.6 |
| 20260506082438 | 25 | 45 | 103.0 | 0.0 | 0.00 | 0.00 | 0.00 | 70 | 916.6 |
| 20260506082330 | 25 | 315 | 51.5 | 0.0 | 0.00 | 0.00 | 0.00 | 70 | 916.5 |
| 20260506082221 | 25 | 0 | 151.3 | 0.0 | 0.00 | 0.00 | 0.00 | 70 | 916.6 |
| 20260506082113 | 24 | 0 | 12.9 | 0.0 | 0.00 | 0.00 | 0.00 | 70 | 916.5 |
| 20260506082004 | 24 | 315 | 57.9 | 0.0 | 0.00 | 0.00 | 0.00 | 69 | 916.6 |
| 20260506081856 | 23 | 0 | 62.8 | 0.0 | 0.00 | 0.00 | 0.00 | 68 | 916.6 |
| 20260506081747 | 23 | 0 | 51.5 | 0.0 | 0.00 | 0.00 | 0.00 | 68 | 916.6 |
| 20260506081639 | 23 | 315 | 32.2 | 0.0 | 0.00 | 0.00 | 0.00 | 69 | 916.6 |
| 20260506081530 | 23 | 315 | 25.7 | 0.0 | 0.00 | 0.00 | 0.00 | 69 | 916.7 |
| 20260506081422 | 23 | 225 | 61.2 | 0.0 | 0.00 | 0.00 | 0.00 | 71 | 916.7 |
| 20260506081314 | 23 | 270 | 33.8 | 0.0 | 0.00 | 0.00 | 0.00 | 73 | 916.7 |
| 20260506081206 | 22 | 45 | 67.6 | 0.0 | 0.00 | 0.00 | 0.00 | 74 | 916.7 |
| 20260506081057 | 21 | 315 | 56.3 | 0.0 | 0.00 | 0.00 | 0.00 | 74 | 916.7 |
| 20260506080948 | 20 | 315 | 45.1 | 0.0 | 0.00 | 0.00 | 0.00 | 72 | 916.8 |
| 20260506080840 | 20 | 45 | 29.0 | 0.0 | 0.00 | 0.00 | 0.00 | 71 | 916.8 |
| 20260506080731 | 19 | 45 | 54.7 | 0.0 | 0.00 | 0.00 | 0.00 | 70 | 916.9 |
| 20260506080623 | 19 | 90 | 32.2 | 0.0 | 0.00 | 0.00 | 0.00 | 70 | 916.9 |
| 20260506080514 | 18 | 0 | 80.5 | 0.0 | 0.00 | 0.00 | 0.00 | 70 | 916.9 |
| 20260506080406 | 18 | 0 | 80.5 | 0.0 | 0.00 | 0.00 | 0.00 | 70 | 916.9 |
| 20260506080258 | 18 | 315 | 14.5 | 0.0 | 0.00 | 0.00 | 0.00 | 70 | 917.0 |
| 20260506080149 | 18 | 315 | 29.0 | 0.0 | 0.00 | 0.00 | 0.00 | 70 | 916.9 |
| 20260506073427 | 22 | 135 | 74.0 | 0.0 | 0.00 | 0.00 | 0.00 | 68 | 916.9 |
| 20260506073318 | 22 | 0 | 17.7 | 0.0 | 0.00 | 0.00 | 0.00 | 68 | 916.9 |
| 20260506073210 | 22 | 0 | 88.5 | 0.0 | 0.00 | 0.00 | 0.00 | 68 | 916.9 |
| 20260506073101 | 22 | 0 | 75.6 | 0.0 | 0.00 | 0.00 | 0.00 | 68 | 917.0 |
| 20260506072953 | 22 | 45 | 24.1 | 0.0 | 0.00 | 0.00 | 0.00 | 67 | 917.0 |
| 20260506072844 | 22 | 315 | 37.0 | 0.0 | 0.00 | 0.00 | 0.00 | 67 | 917.0 |
| 20260506072736 | 22 | 315 | 90.1 | 0.0 | 0.00 | 0.00 | 0.00 | 66 | 917.0 |
| 20260506072627 | 22 | 315 | 41.8 | 0.0 | 0.00 | 0.00 | 0.00 | 66 | 917.0 |
| 20260506072519 | 22 | 0 | 32.2 | 0.0 | 0.00 | 0.00 | 0.00 | 65 | 917.0 |
| 20260506072411 | 23 | 0 | 62.8 | 0.0 | 0.00 | 0.00 | 0.00 | 65 | 917.0 |
| 20260506072305 | 23 | 45 | 12.9 | 0.0 | 0.00 | 0.00 | 0.00 | 65 | 917.0 |
| 20260506072154 | 23 | 270 | 85.3 | 0.0 | 0.00 | 0.00 | 0.00 | 64 | 917.0 |
| 20260506072045 | 24 | 45 | 29.0 | 0.0 | 0.00 | 0.00 | 0.00 | 64 | 916.9 |
| 20260506071937 | 24 | 0 | 74.0 | 0.0 | 0.00 | 0.00 | 0.00 | 64 | 917.0 |
| 20260506071828 | 25 | 45 | 30.6 | 0.0 | 0.00 | 0.00 | 0.00 | 64 | 916.9 |
| 20260506071720 | 25 | 315 | 109.4 | 0.0 | 0.00 | 0.00 | 0.00 | 64 | 917.0 |
| 20260506071612 | 25 | 0 | 78.9 | 0.0 | 0.00 | 0.00 | 0.00 | 64 | 916.9 |
| 20260506071503 | 25 | 45 | 20.9 | 0.0 | 0.00 | 0.00 | 0.00 | 64 | 917.0 |
| 20260506071355 | 25 | 180 | 30.6 | 0.0 | 0.00 | 0.00 | 0.00 | 64 | 917.0 |
| 20260506071246 | 25 | 315 | 4.8 | 0.0 | 0.00 | 0.00 | 0.00 | 65 | 917.0 |
| 20260506071138 | 25 | 90 | 29.0 | 0.0 | 0.00 | 0.00 | 0.00 | 65 | 917.1 |
| 20260506071029 | 25 | 0 | 37.0 | 0.0 | 0.00 | 0.00 | 0.00 | 65 | 917.1 |
| 20260506070921 | 25 | 315 | 72.4 | 0.0 | 0.00 | 0.00 | 0.00 | 65 | 917.1 |
| 20260506070812 | 24 | 0 | 101.4 | 0.0 | 0.00 | 0.00 | 0.00 | 65 | 917.2 |
| 20260506070704 | 24 | 0 | 38.6 | 0.0 | 0.00 | 0.00 | 0.00 | 65 | 917.1 |
| 20260506070556 | 23 | 315 | 38.6 | 0.0 | 0.00 | 0.00 | 0.00 | 65 | 917.2 |
| 20260506070447 | 23 | 45 | 56.3 | 0.0 | 0.00 | 0.00 | 0.00 | 65 | 917.1 |
| 20260506070339 | 23 | 0 | 56.3 | 0.0 | 0.00 | 0.00 | 0.00 | 65 | 917.2 |
| 20260506070230 | 23 | 0 | 59.5 | 0.0 | 0.00 | 0.00 | 0.00 | 66 | 917.1 |
| 20260506070122 | 22 | 45 | 95.0 | 0.0 | 0.00 | 0.00 | 0.00 | 66 | 917.1 |
| 20260506062452 | 18 | 0 | 41.8 | 0.0 | 0.00 | 0.00 | 0.00 | 69 | 917.6 |
| 20260506062343 | 18 | 0 | 78.9 | 0.0 | 0.00 | 0.00 | 0.00 | 69 | 917.6 |
| 20260506062235 | 18 | 0 | 11.3 | 0.0 | 0.00 | 0.00 | 0.00 | 69 | 917.5 |
| 20260506062126 | 18 | 45 | 11.3 | 0.0 | 0.00 | 0.00 | 0.00 | 69 | 917.6 |
| 20260506062018 | 18 | 45 | 14.5 | 0.0 | 0.00 | 0.00 | 0.00 | 68 | 917.6 |
| 20260506061909 | 18 | 315 | 64.4 | 0.0 | 0.00 | 0.00 | 0.00 | 68 | 917.6 |
| 20260506061801 | 18 | 0 | 45.1 | 0.0 | 0.00 | 0.00 | 0.00 | 68 | 917.7 |
| 20260506061653 | 18 | 0 | 24.1 | 0.0 | 0.00 | 0.00 | 0.00 | 68 | 917.7 |
| 20260506061544 | 19 | 0 | 46.7 | 0.0 | 0.00 | 0.00 | 0.00 | 68 | 917.7 |
| 20260506061436 | 19 | 0 | 62.8 | 0.0 | 0.00 | 0.00 | 0.00 | 67 | 917.7 |
| 20260506061327 | 20 | 0 | 112.7 | 0.0 | 0.00 | 0.00 | 0.00 | 68 | 917.7 |
| 20260506061219 | 20 | 0 | 66.0 | 0.0 | 0.00 | 0.00 | 0.00 | 68 | 917.6 |
| 20260506061110 | 20 | 0 | 17.7 | 0.0 | 0.00 | 0.00 | 0.00 | 68 | 917.7 |
| 20260506061002 | 19 | 90 | 14.5 | 0.0 | 0.00 | 0.00 | 0.00 | 68 | 917.7 |
| 20260506060854 | 19 | 45 | 37.0 | 0.0 | 0.00 | 0.00 | 0.00 | 68 | 917.7 |
| 20260506060745 | 18 | 45 | 95.0 | 0.0 | 0.00 | 0.00 | 0.00 | 69 | 917.7 |
| 20260506060637 | 18 | 0 | 37.0 | 0.0 | 0.00 | 0.00 | 0.00 | 69 | 917.7 |
| 20260506060528 | 18 | 0 | 67.6 | 0.0 | 0.00 | 0.00 | 0.00 | 69 | 917.8 |
| 20260506060420 | 17 | 315 | 45.1 | 0.0 | 0.00 | 0.00 | 0.00 | 70 | 917.8 |
| 20260506060311 | 17 | 0 | 30.6 | 0.0 | 0.00 | 0.00 | 0.00 | 70 | 917.9 |
| 20260506060203 | 17 | 90 | 75.6 | 0.0 | 0.00 | 0.00 | 0.00 | 70 | 917.8 |